     2.10           OBSERVATION DATA    G (GPS)             RINEX VERSION / TYPE
teqc 2006Apr13 CORS-ADM Account 20060624 02:04:03UTC        PGM / RUN BY / DATE
Solaris 5.9|UltraSparc IIi|cc -xarch=v9 SC5.5|=+-|*Sparc    COMMENT
teqc 2006Apr13 CORS/NGS/NOAA 20060624 02:04:01UTC           COMMENT
BIT 2 OF LLI FLAGS DATA COLLECTED UNDER A/S CONDITION       COMMENT
jama                                                        MARKER NAME
Frank E Marion NOAA, National Geodetic Survey               OBSERVER / AGENCY
ZR220022405 ASHTECH UZ-12 CK00                              REC # / TYPE / VERS
114 AOAD/M_TA_NGS SNOW                                      ANT # / TYPE
  1388060.4401 -5909150.8065  1951964.1158                  APPROX POSITION XYZ
        0.0000        0.0000        0.0000                  ANTENNA: DELTA H/E/N
     1     1                                                WAVELENGTH FACT L1/2
     7    C1    L1    L2    P1    P2    D1    D2            # / TYPES OF OBSERV
    30.0000                                                 INTERVAL
SNR is mapped to RINEX snr flag value [0-9]                 COMMENT
L1 & L2: min(max(int(snr_dBHz/6), 0), 9)                    COMMENT
pseudorange smoothing corrections not applied               COMMENT
Forced Modulo Decimation to 30 seconds                      COMMENT
  2006     6    24     1     0    0.0000000     GPS         TIME OF FIRST OBS
                                                            END OF HEADER
 06  6 24  1  0  0.0000000  0  9G11G25G23G16G13G19G 3G27G20
  23736873.4564   -9004568.70647  -6977979.50346  23736872.3524   23736875.1364
      2757.1524       2148.4324
  23818685.0534     489594.48047    396141.46646  23818686.5544   23818686.1534
     -1835.2244      -1430.0474
  20415815.6304  -27366510.49448 -21307136.87948  20415815.5824   20415813.7864
     -1109.9334       -864.8914
  24084952.5804   -5634903.36747  -4095697.92146  24084954.0784   24084952.9124
     -2012.2504      -1567.9814
  21172947.9414  -20605628.32948 -15980032.79447  21172948.3934   21172948.9594
      1221.8864        952.1194
  20234517.2924  -25649789.63049 -19932135.31148  20234516.4724   20234515.8094
       218.2624        170.0734
  20887533.8874  -18540317.97648 -14428724.85148  20887534.1424   20887535.4754
     -2057.3524      -1603.1334
  24871099.0684   -5593055.49747  -4153779.32846  24871099.4364   24871102.5504
      2625.9594       2046.1914
  24659415.1744   -5712617.79446  -3977691.81345  24659415.9024   24659419.3154
     -1634.2504      -1273.4534
 06  6 24  1  0 30.0000000  0  9G11G25G23G16G13G19G 3G27G20
  23721120.2814   -9087356.81347  -7042489.60046  23721119.5224   23721122.0854
      2760.4604       2151.0044
  23829182.9634     544764.90347    439131.41146  23829182.5824   23829185.2424
     -1844.4134      -1437.2004
  20422200.9754  -27332955.20048 -21280989.90248  20422200.3364   20422199.0214
     -1128.8614       -879.6314
  24096424.6744   -5574623.67347  -4048726.71146  24096422.8644   24096425.3434
     -2008.3294      -1564.9474
  21166019.4264  -20642038.04248 -16008403.98447  21166019.9474   21166020.7074
      1203.5024        937.7924
  20233321.7574  -25656072.94649 -19937031.39148  20233320.9614   20233320.3304
       198.9614        155.0314
  20899315.2254  -18478408.04748 -14380483.35348  20899315.3584   20899316.4294
     -2071.9504      -1614.5134
  24856088.4004   -5671931.41747  -4215241.03546  24856089.2564   24856091.0634
      2631.0814       2050.1904
  24668720.6664   -5663711.07746  -3939582.61745  24668722.1644   24668724.4944
     -1627.7694      -1268.3944
 06  6 24  1  1  0.0000000  0  9G11G25G23G16G13G19G 3G27G20
  23705345.1124   -9170254.07746  -7107084.81946  23705343.5054   23705344.8964
      2764.8504       2154.4204
  23839733.7544     600216.84647    482340.65146  23839735.8444   23839736.1944
     -1853.3324      -1444.1694
  20428693.1564  -27298837.20248 -21254404.45148  20428692.8484   20428691.7914
     -1146.9864       -893.7524
  24107870.7714   -5514467.24647  -4001851.57946  24107870.5014   24107872.6364
     -2003.6194      -1561.2674
  21159197.9434  -20677888.28248 -16036339.23247  21159198.3754   21159198.9764
      1185.0444        923.4204
  20232234.1824  -25661787.83249 -19941484.53548  20232233.3894   20232232.6764
       180.7524        140.8484
  20911177.7824  -18416069.91548 -14331908.18948  20911177.6154   20911179.0734
     -2085.5794      -1625.1234
  24841047.9854   -5750966.82946  -4276827.01446  24841048.8064   24841052.2884
      2636.5824       2054.4744
  24677990.2044   -5615002.89646  -3901628.12145  24677990.4394   24677993.1634
     -1620.5214      -1262.7444
 06  6 24  1  1 30.0000000  0  9G11G25G23G16G13G19G 3G27G20
  23689550.1934   -9253252.95847  -7171759.14546  23689549.6104   23689552.5724
      2768.9234       2157.5964
  23850342.8654     655955.85747    525773.67246  23850341.9634   23850343.0354
     -1862.1554      -1451.0284
  20435293.5954  -27264152.63848 -21227377.52548  20435293.1974   20435292.1844
     -1165.1724       -907.9334
  24119297.7094   -5454428.36347  -3955068.03146  24119297.0444   24119297.0004
     -1999.2204      -1557.8334
  21152483.0864  -20713171.90748 -16063832.95947  21152483.6484   21152484.8394
      1166.8434        909.2244
  20231256.1204  -25666928.70349 -19945490.40048  20231255.2574   20231254.3514
       162.3564        126.5074
  20923122.3324  -18353300.43148 -14282996.90748  20923122.1794   20923123.4644
     -2099.1624      -1635.7044
  24825979.3534   -5830154.98847  -4338531.96746  24825979.2674   24825982.3214
      2642.6884       2059.2374
  24687223.7174   -5566489.11346  -3863825.06745  24687220.2204   24687225.3284
     -1613.6614      -1257.3914
 06  6 24  1  2  0.0000000  0  9G11G25G23G16G13G19G 3G27G20
  23673736.9074   -9336355.29147  -7236514.05446  23673735.0794   23673738.7054
      2772.8564       2160.6744
  23861002.6064     711978.13047    569427.30746  23861003.4364   23861004.6194
     -1870.7774      -1457.7374
  20442000.2274  -27228906.81048 -21199913.24448  20442000.6174   20441999.3684
     -1183.2554       -922.0064
  24130697.0754   -5394511.31847  -3908379.42446  24130698.8464   24130697.7494
     -1993.9054      -1553.6924
  21145877.3414  -20747891.67148 -16090887.30847  21145876.6164   21145877.6584
      1149.1504        895.4524
  20230385.8504  -25671499.80749 -19949052.28948  20230385.4024   20230384.4794
       143.6904        111.9724
  20935147.8494  -18290106.04948 -14233754.52948  20935147.4664   20935149.4894
     -2112.6164      -1646.1824
  24810881.3094   -5909498.85647  -4400358.27446  24810880.4714   24810884.4674
      2648.2594       2063.5844
  24696416.8494   -5518175.98846  -3826178.38745  24696415.8834   24696419.5644
     -1606.1124      -1251.5264
 06  6 24  1  2 30.0000000  0  9G11G25G23G16G13G19G 3G27G20
  23657902.9304   -9419556.23647  -7301345.80746  23657903.1904   23657905.3384
      2775.5644       2162.7784
  23871716.6504     768285.80347    613303.44246  23871715.9174   23871717.8924
     -1880.8554      -1465.6034
  20448814.7384  -27193099.35048 -21172011.33648  20448814.3804   20448812.5884
     -1202.3474       -936.8904
  24142076.7354   -5334714.34447  -3861784.37346  24142077.2524   24142076.7674
     -1990.3334      -1550.9114
  21139376.8764  -20782044.21448 -16117499.68447  21139378.2424   21139378.4254
      1129.5174        880.1384
  20229625.4874  -25675499.20849 -19952168.70048  20229624.4814   20229623.5274
       124.4244         96.9574
  20947254.6634  -18226486.93148 -14184181.19348  20947254.2944   20947255.3334
     -2127.1774      -1657.5334
  24795751.4784   -5988995.34346  -4462303.53046  24795751.3214   24795755.6064
      2653.0924       2067.3614
  24705573.8574   -5470063.05146  -3788687.67645  24705573.1614   24705575.4814
     -1599.6944      -1246.5054
 06  6 24  1  3  0.0000000  0  9G11G25G23G16G13G19G 3G27G20
  23642052.5504   -9502855.83447  -7366254.48446  23642051.2894   23642052.5184
      2778.1184       2164.7634
  23882487.2344     824876.56947    657400.11846  23882486.5624   23882487.4894
     -1891.5204      -1473.9154
  20455734.8904  -27156734.04648 -21143674.73648  20455734.2854   20455732.8454
     -1221.4674       -951.8004
  24153432.3124   -5275039.62547  -3815284.57446  24153432.1304   24153433.7514
     -1987.2094      -1548.4804
  21132986.1844  -20815630.65448 -16143670.92447  21132986.9054   21132987.1834
      1110.3254        865.1844
  20228972.2584  -25678929.44549 -19954841.60048  20228971.5434   20228970.6334
       104.5354         81.4464
  20959440.2134  -18162448.10348 -14134280.80748  20959440.2384   20959441.9984
     -2141.8434      -1668.9814
  24780596.2884   -6068645.88947  -4524368.81346  24780594.5384   24780599.1504
      2657.4624       2070.7414
  24714688.1424   -5422154.69646  -3751356.39245  24714687.5694   24714691.5994
     -1593.4674      -1241.6734
 06  6 24  1  3 30.0000000  0  9G11G25G23G16G13G19G 3G27G20
  23626182.5274   -9586249.76346  -7431236.67846  23626181.1614   23626184.0544
      2781.2104       2167.1704
  23893309.3274     881752.81547    701719.24646  23893310.2444   23893313.0244
     -1900.8004      -1481.1504
  20462760.7724  -27119810.13648 -21114902.86548  20462761.1024   20462759.5074
     -1240.1084       -966.3144
  24164767.2944   -5215484.80847  -3768878.24946  24164766.1094   24164764.5354
     -1982.8404      -1545.0744
  21126703.9644  -20848647.51648 -16169398.34947  21126703.6664   21126704.1084
      1091.2524        850.3294
  20228428.1724  -25681788.20049 -19957069.19148  20228427.4794   20228426.5794
        85.7294         66.7994
  20971706.6144  -18097989.62948 -14084053.42048  20971706.4554   20971707.6984
     -2155.7084      -1679.7714
  24765410.0204   -6148446.99647  -4586551.41846  24765410.4504   24765413.2764
      2662.5944       2074.7404
  24723766.1234   -5374450.53846  -3714184.21845  24723764.6644   24723769.2734
     -1586.5334      -1236.2744
 06  6 24  1  4  0.0000000  0  9G11G25G23G16G13G19G 3G27G20
  23610293.0394   -9669738.93747  -7496293.07046  23610294.9674   23610297.5664
      2784.6454       2169.8604
  23904186.0054     938911.28747    746258.27046  23904186.9764   23904187.3654
     -1909.9924      -1488.3044
  20469893.4174  -27082332.62248 -21085699.61648  20469892.2744   20469891.4514
     -1258.5344       -980.6784
  24176074.5594   -5156053.46747  -3722568.08946  24176075.6574   24176075.6654
     -1978.8524      -1541.9584
  21120528.0244  -20881096.97348 -16194683.63647  21120528.9594   21120528.9594
      1072.2334        835.5054
  20227992.2804  -25684078.87449 -19958854.12348  20227991.5154   20227990.8204
        66.8854         52.1184
  20984051.6684  -18033117.23348 -14033503.51048  20984051.1134   20984052.7184
     -2169.3314      -1690.3974
  24750195.6434   -6228400.70547  -4648852.91846  24750194.9034   24750198.0644
      2667.6564       2078.7024
  24732805.1384   -5326955.25446  -3677174.83145  24732803.3204   24732807.4004
     -1579.4264      -1230.7264
 06  6 24  1  4 30.0000000  0  9G11G25G23G16G13G19G 3G27G20
  23594389.7584   -9753319.13947  -7561420.35146  23594389.7924   23594391.5464
      2786.8584       2171.5724
  23915118.7804     996353.51647    791018.46646  23915117.7524   23915119.2064
     -1919.9134      -1496.0394
  20477129.7524  -27044301.44948 -21056064.94148  20477129.5834   20477128.2444
     -1277.5494       -995.4964
  24187361.7264   -5096743.85247  -3676352.82446  24187361.1024   24187362.5754
     -1975.6964      -1539.4994
  21114461.8974  -20912976.16248 -16219524.55647  21114461.9244   21114462.9404
      1052.6604        820.2464
  20227664.7314  -25685800.72049 -19960195.81648  20227663.7894   20227663.1524
        47.3524         36.8954
  20996474.5324  -17967832.01448 -13982631.91148  20996474.8584   20996475.2064
     -2183.5454      -1701.4644
  24734951.5154   -6308504.43547  -4711271.35646  24734952.0374   24734954.2274
      2672.0974       2082.1504
  24741801.2214   -5279668.86746  -3640328.21045  24741800.0254   24741807.6484
     -1573.0374      -1225.7504
 06  6 24  1  5  0.0000000  0  9G11G25G23G16G13G19G 3G27G20
  23578468.8814   -9836985.72447  -7626614.97946  23578468.5424   23578471.0974
      2789.6294       2173.7284
  23926102.9124    1054081.82047    836001.48046  23926101.6434   23926104.4054
     -1929.6914      -1503.6434
  20484472.5754  -27005716.06948 -21025998.41848  20484471.8694   20484470.7284
     -1295.9504      -1009.8514
  24198623.2594   -5037553.94047  -3630230.81146  24198624.7574   24198624.6574
     -1970.9944      -1535.8314
  21108505.1794  -20944281.73448 -16243918.50747  21108504.9894   21108505.8394
      1033.1384        805.0404
  20227446.0124  -25686951.19649 -19961092.28148  20227444.8164   20227444.2044
        28.2474         21.9974
  21008976.5134  -17902134.04848 -13931438.68948  21008976.5014   21008977.7964
     -2197.5574      -1712.3894
  24719681.1544   -6388754.90947  -4773804.14846  24719680.8634   24719683.4294
      2676.6444       2085.6914
  24750759.8124   -5232591.50246  -3603644.48845  24750759.9634   24750764.5504
     -1566.4834      -1220.6594
 06  6 24  1  5 30.0000000  0  9G11G25G23G16G13G19G 3G27G20
  23562530.6044   -9920738.27147  -7691876.60146  23562530.7954   23562531.1294
      2793.7914       2176.9734
  23937143.1394    1112094.49547    881206.15746  23937143.0034   23937140.1074
     -1938.0794      -1510.2004
  20491920.2294  -26966579.58848 -20995502.46648  20491919.6454   20491918.3354
     -1313.2194      -1023.2914
  24209865.9684   -4978485.18747  -3584203.23746  24209864.8494   24209867.0224
     -1966.6374      -1532.4434
  21102656.1804  -20975014.22748 -16267865.90047  21102657.2544   21102657.0204
      1015.6084        791.3884
  20227334.8924  -25687532.41949 -19961545.17448  20227334.3504   20227333.3974
        10.1494          7.9054
  21021556.4644  -17836027.56548 -13879927.14948  21021556.1234   21021557.3024
     -2210.1934      -1722.2284
  24704382.2584   -6469152.84247  -4836451.80646  24704379.5494   24704385.6644
      2682.4394       2090.2114
  24759678.6644   -5185726.47746  -3567126.22345  24759678.4324   24759682.7724
     -1558.6904      -1214.5764
 06  6 24  1  6  0.0000000  0  9G11G25G23G16G13G19G 3G27G20
  23546576.2064  -10004578.49147  -7757206.56046  23546576.8344   23546577.2414
      2796.6534       2179.1974
  23948234.8384    1170387.11747    926629.04046  23948235.7694   23948239.3774
     -1947.6434      -1517.6414
  20499471.0964  -26926898.43048 -20964582.09548  20499470.6904   20499469.4574
     -1331.3524      -1037.4184
  24221081.9104   -4919542.37847  -3538273.76446  24221081.3874   24221081.5254
     -1961.4104      -1528.3684
  21096916.9084  -21005177.10648 -16291369.43547  21096916.8404   21096917.2774
       996.4664        776.4754
  20227332.1854  -25687549.31449 -19961558.33148  20227331.2044   20227330.3424
        -8.3564         -6.5054
  21034212.1684  -17769519.43548 -13828102.62748  21034212.4374   21034213.3944
     -2223.1654      -1732.3264
  24689052.5744   -6549701.41447  -4899216.82946  24689053.1074   24689055.7904
      2687.8894       2094.4574
  24768557.2964   -5139080.18746  -3530778.43145  24768554.4134   24768557.9764
     -1550.7234      -1208.3504
 06  6 24  1  6 30.0000000  0  9G11G25G23G16G13G19G 3G27G20
  23530606.8624  -10088496.28847  -7822596.94346  23530607.5664   23530609.4294
      2797.8184       2180.1214
  23959383.4704    1228967.54647    972275.94046  23959383.4694   23959383.6294
     -1958.0504      -1525.7524
  20507127.0894  -26886666.14748 -20933232.27448  20507126.5604   20507125.8224
     -1350.7224      -1052.5094
  24232275.5754   -4860717.35647  -3492436.11046  24232275.7244   24232276.7854
     -1959.5944      -1526.9514
  21091286.8644  -21034761.22948 -16314422.00147  21091287.5144   21091287.8574
       975.8494        760.4084
  20227438.0184  -25686993.91249 -19961125.54448  20227436.8764   20227436.0564
       -28.6334        -22.3054
  21046945.7554  -17702604.46548 -13775961.09248  21046945.5264   21046947.1304
     -2237.9714      -1743.8724
  24673700.9514   -6630391.54747  -4962092.24546  24673698.7614   24673700.4414
      2691.1834       2097.0324
  24777391.4324   -5092646.11346  -3494595.98145  24777390.6644   24777399.2514
     -1544.4484      -1203.4764
 06  6 24  1  7  0.0000000  0  8G11G25G23G16G13G19G 3G27
  23514623.4604  -10172490.34847  -7888046.77546  23514624.4074   23514625.1304
      2800.7764       2182.4134
  23970584.2664    1287834.81247   1018146.69546  23970585.3134   23970584.5694
     -1967.1124      -1532.8244
  20514887.0664  -26845885.69948 -20901455.31048  20514887.1724   20514885.6124
     -1368.7274      -1066.5504
  24243446.1744   -4802011.29747  -3446691.14246  24243446.4874   24243448.2524
     -1955.2494      -1523.5714
  21085767.2104  -21063766.63948 -16337023.61547  21085767.7654   21085768.2884
       956.9934        745.7094
  20227652.0804  -25685867.41249 -19960247.74348  20227651.3604   20227650.2484
       -47.4254        -36.9494
  21059756.1074  -17635285.85848 -13723505.02948  21059756.0274   21059757.1334
     -2250.9674      -1753.9994
  24658314.5764   -6711223.12147  -5025077.81346  24658315.3624   24658320.0564
      2696.4204       2101.0924
 06  6 24  1  7 30.0000000  0  8G11G25G23G16G13G19G 3G27
  23498624.8994  -10256566.02447  -7953560.19146  23498624.8224   23498627.2024
      2803.5634       2184.6004
  23981841.1714    1346981.07647   1064234.56246  23981841.5854   23981843.1564
     -1976.5724      -1540.1764
  20522749.7994  -26804566.66748 -20869258.67048  20522749.5214   20522748.5704
     -1386.5644      -1080.4294
  24254595.5094   -4743431.59347  -3401044.61646  24254595.2064   24254594.1594
     -1951.1214      -1520.3544
  21080357.2124  -21092200.19648 -16359179.62347  21080356.8234   21080357.4164
       937.9234        730.8584
  20227973.4874  -25684178.39649 -19958931.61748  20227972.6484   20227971.5244
       -65.9134        -51.3514
  21072640.8304  -17567574.11448 -13670742.63148  21072641.1404   21072642.6534
     -2263.9924      -1764.1424
  24642907.0834   -6792202.59147  -5088178.59346  24642907.2894   24642909.8064
      2701.5414       2105.0954
 06  6 24  1  8  0.0000000  0  8G11G25G23G16G13G19G 3G27
  23482610.2984  -10340717.28947  -8019132.49746  23482610.9594   23482612.6314
      2804.7894       2185.5394
  23993148.9164    1406409.28547   1110542.18946  23993146.2724   23993145.4514
     -1987.3794      -1548.6134
  20530715.6404  -26762707.54148 -20836641.17848  20530715.0794   20530713.7144
     -1405.8464      -1095.4814
  24265718.9804   -4684975.34847  -3355494.30646  24265718.6584   24265718.2514
     -1947.8664      -1517.8274
  21075055.5074  -21120057.53548 -16380886.63347  21075056.1014   21075056.5264
       917.5324        714.9464
  20228402.0194  -25681923.99549 -19957174.92848  20228401.2604   20228400.7494
       -86.1844        -67.1774
  21085601.0774  -17499468.71448 -13617673.48448  21085600.8094   21085602.5014
     -2278.3764      -1775.3844
  24627468.8084   -6873325.67147  -5151391.33746  24627470.0784   24627471.0864
      2704.7954       2107.6284
 06  6 24  1  8 30.0000000  0  8G11G25G23G16G13G19G 3G27
  23466584.0444  -10424938.05047  -8084758.98746  23466584.8024   23466586.8894
      2807.9104       2187.9864
  24004511.3534    1466123.63847   1157073.00246  24004511.7594   24004516.0794
     -1996.1674      -1555.4534
  20538784.1334  -26720305.92548 -20803600.97348  20538783.9334   20538782.9324
     -1423.0284      -1108.8624
  24276821.0004   -4626638.45347  -3310037.00246  24276819.7454   24276820.0624
     -1942.8514      -1513.9144
  21069864.9064  -21147333.71448 -16402140.80247  21069865.6004   21069866.0824
       898.9944        700.5324
  20228939.7074  -25679100.52449 -19954974.81548  20228938.7684   20228938.0434
      -104.2414        -81.2354
  21098636.6934  -17430967.95048 -13564296.26748  21098636.4774   21098637.5314
     -2290.6054      -1784.8874
  24612005.0124   -6954587.05547  -5214711.84046  24612005.6704   24612008.6184
      2710.7784       2112.3024
 06  6 24  1  9  0.0000000  0  8G11G25G23G16G13G19G 3G27
  23450544.0184  -10509232.54947  -8150442.96046  23450545.2654   23450545.9114
      2811.9764       2191.1504
  24015928.8324    1526117.02547   1203820.96246  24015927.2494   24015931.5054
     -2003.6804      -1561.3044
  20546954.5404  -26677370.30348 -20770144.65948  20546954.4234   20546952.9414
     -1439.1344      -1121.4044
  24287897.1764   -4568427.67647  -3264677.94446  24287896.9144   24287896.3204
     -1937.0944      -1509.4164
  21064784.4214  -21174034.64048 -16422946.70647  21064784.4954   21064784.9764
       881.3204        686.7434
  20229584.0624  -25675715.19449 -19952336.88748  20229583.0844   20229582.1304
      -121.3054        -94.5264
  21111745.3294  -17362081.23548 -13510618.30748  21111745.0944   21111746.0804
     -2301.8884      -1793.6914
  24596515.5484   -7035992.56547  -5278144.62846  24596516.4984   24596518.3004
      2716.7674       2116.9594
 06  6 24  1  9 30.0000000  0  8G11G25G23G16G13G19G 3G27
  23434489.7824  -10593593.35847  -8216178.57046  23434489.2024   23434493.1844
      2812.6314       2191.6554
  24027398.3504    1586394.54747   1250790.44246  24027398.7994   24027395.2064
     -2014.7614      -1569.9514
  20555227.1254  -26633897.84148 -20736270.02348  20555226.9084   20555225.5774
     -1458.6054      -1136.5804
  24298950.7214   -4510338.08347  -3219413.33346  24298949.6674   24298950.1354
     -1934.6154      -1507.4944
  21059813.7234  -21200154.53048 -16443299.86247  21059813.8384   21059814.2954
       860.3554        670.4094
  20230335.6604  -25671763.86449 -19949257.91948  20230335.0534   20230334.0684
      -141.7494       -110.4584
  21124928.0544  -17292806.25648 -13456637.79848  21124927.4574   21124928.6364
     -2316.3574      -1804.9544
  24580998.8284   -7117535.72447  -5341684.67246  24580997.6584   24581001.2904
      2719.6184       2119.1814
 06  6 24  1 10  0.0000000  0  8G11G25G23G16G13G19G 3G27
  23418425.7484  -10678018.24947  -8281964.10346  23418424.9394   23418427.5784
      2815.2874       2193.7364
  24038923.8024    1646955.44647   1297980.85246  24038923.6304   24038925.3524
     -2023.1974      -1576.5174
  20563601.7424  -26589890.66648 -20701978.72848  20563601.1764   20563600.0164
     -1476.0064      -1150.1374
  24309982.5854   -4452369.60047  -3174243.10746  24309982.2034   24309983.4654
     -1930.1784      -1504.0374
  21054954.2184  -21225692.63448 -16463199.67047  21054954.7194   21054954.8024
       841.4294        655.6784
  20231195.2294  -25667246.82749 -19945738.14348  20231194.5484   20231193.8364
      -160.0764       -124.7354
  21138183.9564  -17223145.74448 -13402356.87647  21138183.9044   21138185.0684
     -2328.6564      -1814.5384
  24565455.2304   -7199215.69347  -5405331.33946  24565455.4134   24565456.4694
      2724.6794       2123.1274
 06  6 24  1 10 30.0000000  0  8G11G25G23G16G13G19G 3G27
  23402347.0734  -10762509.81047  -8347801.62546  23402346.4484   23402347.6944
      2817.4134       2195.3794
  24050499.9344    1707794.57847   1345387.79646  24050499.8304   24050503.3644
     -2033.0204      -1584.1634
  20572076.0404  -26545356.23348 -20667276.59148  20572075.7874   20572074.3904
     -1493.6674      -1163.9034
  24320988.8634   -4394527.86247  -3129171.63646  24320988.9584   24320989.2534
     -1926.4224      -1501.1044
  21050203.7194  -21250653.52448 -16482649.70847  21050204.3044   21050204.6044
       821.8204        640.3684
  20232161.4484  -25662170.18049 -19941782.30648  20232160.5464   20232159.7504
      -178.9644       -139.4604
  21151511.4134  -17153107.71048 -13347781.78147  21151511.1114   21151512.7454
     -2341.6004      -1824.6304
  24549885.6254   -7281036.73747  -5469087.95746  24549885.9284   24549888.3984
      2729.3194       2126.7434
 06  6 24  1 11  0.0000000  0  8G11G25G23G16G13G19G 3G27
  23386256.2434  -10847058.73547  -8413683.83646  23386257.0374   23386257.0534
      2819.5834       2197.0834
  24062132.4124    1768919.09547   1393017.39346  24062133.4204   24062130.7624
     -2041.8184      -1591.0344
  20580652.3024  -26500288.57348 -20632158.94448  20580651.9914   20580650.1394
     -1510.9064      -1177.3344
  24331973.2464   -4336804.99347  -3084192.75946  24331973.4124   24331973.3014
     -1922.1534      -1497.7874
  21045565.8814  -21275028.83748 -16501643.44947  21045566.0664   21045567.0294
       802.9764        625.7004
  20233235.1234  -25656527.33349 -19937385.27648  20233234.2884   20233233.4914
      -197.3344       -153.7744
  21164912.1394  -17082687.18248 -13292908.64547  21164911.9634   21164913.8904
     -2353.6124      -1833.9854
  24534289.8284   -7362990.02347  -5532947.59146  24534288.8324   24534292.4684
      2734.5254       2130.7984
 06  6 24  1 11 30.0000000  0  8G11G25G23G16G13G19G 3G27
  23370159.6514  -10931663.88547  -8479609.87246  23370157.0604   23370157.9084
      2820.7514       2197.9804
  24073817.0814    1830327.28447   1440867.91546  24073816.8144   24073821.5964
     -2052.0334      -1598.9734
  20589328.7874  -26454691.49448 -20596628.77148  20589328.8154   20589327.2964
     -1528.7454      -1191.2314
  24342934.2924   -4279202.68647  -3039307.84046  24342934.1424   24342935.0794
     -1918.0684      -1494.5904
  21041038.8004  -21298819.42148 -16520181.55647  21041038.8994   21041039.0494
       783.2414        610.3204
  20234416.0894  -25650320.10349 -19932548.46748  20234415.4894   20234414.8354
      -216.2994       -168.5494
  21178385.2014  -17011888.51048 -13237740.84947  21178384.5764   21178386.2204
     -2366.3574      -1843.9174
  24518669.3034   -7445076.13347  -5596910.70346  24518667.6584   24518669.7174
      2738.2024       2133.6574
 06  6 24  1 12  0.0000000  0  8G11G25G23G16G13G19G 3G27
  23354046.3644  -11016324.52647  -8545579.14446  23354047.1254   23354048.8714
      2823.2234       2199.9064
  24085557.7724    1892016.96847   1488937.69146  24085558.2004   24085558.4344
     -2061.2374      -1606.1594
  20598105.9064  -26408568.72048 -20560688.95848  20598105.6184   20598103.9244
     -1545.9894      -1204.6524
  24353871.7494   -4221722.68647  -2994518.23646  24353873.8094   24353872.4784
     -1914.0664      -1491.4804
  21036622.0194  -21322026.50948 -16538265.00047  21036622.5934   21036623.1394
       764.0094        595.3324
  20235704.7434  -25643550.64349 -19927273.55948  20235703.6644   20235703.0314
      -234.7884       -182.9414
  21191927.8554  -16940716.10148 -13182281.82847  21191928.0664   21191929.2734
     -2378.5614      -1853.4154
  24503022.9604   -7527295.43447  -5660977.64946  24503023.1544   24503025.2504
      2742.8144       2137.2604
 06  6 24  1 12 30.0000000  0  8G11G25G23G16G13G19G 3G27
  23337927.4484  -11101039.52247  -8611590.76346  23337926.2934   23337927.7884
      2823.9294       2200.4554
  24097349.4884    1953986.70947   1537225.86946  24097349.9804   24097348.6924
     -2071.1544      -1613.8884
  20606982.1064  -26361923.62748 -20524342.14648  20606981.8224   20606980.9384
     -1564.3814      -1218.9814
  24364786.4874   -4164366.23946  -2949824.88646  24364786.4524   24364786.4284
     -1910.3344      -1488.5724
  21032317.0574  -21344650.50048 -16555894.06747  21032317.3574   21032317.8724
       743.4374        579.2994
  20237099.1224  -25636221.50949 -19921562.54148  20237098.6364   20237097.7724
      -254.4674       -198.2804
  21205542.2474  -16869174.08848 -13126534.79847  21205542.2344   21205543.6384
     -2391.8704      -1863.7894
  24487352.6614   -7609648.09347  -5725148.49246  24487351.7344   24487355.9834
      2746.4984       2140.1194
 06  6 24  1 13  0.0000000  0  8G11G25G23G16G13G19G 3G27
  23321794.6654  -11185807.58447  -8677643.76446  23321795.8634   23321796.5154
      2826.2354       2202.2514
  24109195.9614    2016235.21047   1585731.15646  24109195.6544   24109196.3834
     -2079.7704      -1620.6024
  20615957.3374  -26314759.47248 -20487590.86948  20615957.1334   20615955.5124
     -1580.8594      -1231.8384
  24375678.1174   -4107134.16747  -2905228.46146  24375677.4604   24375678.3044
     -1905.7904      -1485.0384
  21028122.4494  -21366692.20648 -16573069.42347  21028123.2834   21028123.4234
       724.8404        564.8084
  20238600.3414  -25628334.54749 -19915416.85448  20238599.4764   20238598.4014
      -272.3644       -212.2344
  21219225.8614  -16797265.87848 -13070502.42247  21219225.7644   21219226.8984
     -2403.3444      -1872.7374
  24471655.1964   -7692134.04247  -5789423.16846  24471654.1964   24471657.0854
      2752.0104       2144.4234
 06  6 24  1 13 30.0000000  0  8G11G25G23G16G13G19G 3G27
  23305655.7194  -11270617.60847  -8743729.42846  23305656.9354   23305658.0784
      2827.6214       2203.3454
  24121094.8724    2078770.75047   1634460.09946  24121095.1744   24121095.7374
     -2089.1194      -1627.8904
  20625032.1824  -26267069.65548 -20450429.98648  20625032.1594   20625031.0074
     -1598.2204      -1245.3674
  24386547.3724   -4050017.62246  -2860722.06546  24386546.0254   24386547.6284
     -1901.7194      -1481.8614
  21024040.8384  -21388142.04248 -16589783.57447  21024040.8974   21024041.8274
       705.4584        549.7004
  20240208.8924  -25619881.55849 -19908830.10448  20240207.8434   20240206.6614
      -291.1184       -226.8464
  21232981.3484  -16724985.57448 -13014180.10647  21232980.4904   21232981.5994
     -2415.4834      -1882.2104
  24455935.2834   -7774743.22247  -5853793.91246  24455934.4614   24455937.3364
      2755.8144       2147.3904
 06  6 24  1 14  0.0000000  0  8G11G25G23G16G13G19G 3G27
  23289508.8614  -11355479.22447  -8809855.33946  23289508.3654   23289510.0164
      2829.0404       2204.4364
  24133047.4424    2141580.36546   1683402.70446  24133047.3434   24133048.3354
     -2098.8984      -1635.5084
  20634204.5964  -26218868.94048 -20412870.99848  20634204.4074   20634202.9774
     -1615.7664      -1259.0304
  24397392.5324   -3993029.86147  -2816316.01246  24397392.5704   24397391.5964
     -1898.1764      -1479.0984
  21020069.2194  -21409012.02548 -16606045.89247  21020069.7764   21020070.3934
       685.5564        534.2114
  20241922.0614  -25610875.69749 -19901812.54148  20241921.5794   20241920.7224
      -310.0994       -241.6314
  21246802.9204  -16652348.73948 -12957579.97247  21246802.5134   21246803.7534
     -2427.9614      -1891.9224
  24440188.6764   -7857487.21247  -5918269.71346  24440187.6364   24440191.4304
      2759.8984       2150.5774
 06  6 24  1 14 30.0000000  0  8G11G25G23G16G13G19G 3G27
  23273351.9974  -11440383.41447  -8876014.37746  23273349.7344   23273352.4244
      2830.5274       2205.6144
  24145054.4414    2204670.83847   1732564.08246  24145053.5134   24145055.0554
     -2108.2414      -1642.7834
  20643475.0494  -26170152.23448 -20374909.94948  20643474.7634   20643473.5504
     -1632.9634      -1272.4364
  24408210.7194   -3936163.37647  -2772004.49746  24408211.0284   24408212.6024
     -1894.0374      -1475.8604
  21016210.2404  -21429294.63448 -16621850.51647  21016209.7324   21016210.4924
       666.2384        519.1504
  20243742.0934  -25601311.53649 -19894359.94548  20243741.5234   20243740.6954
      -328.8194       -256.2294
  21260693.6984  -16579350.73448 -12900698.41247  21260693.5494   21260695.0444
     -2439.9674      -1901.2854
  24424419.5874   -7940357.34547  -5982843.75646  24424418.9614   24424423.2594
      2763.5904       2153.4454
 06  6 24  1 15  0.0000000  0  8G11G25G23G16G13G19G 3G27
  23257187.2124  -11525325.00047  -8942202.60146  23257186.8794   23257187.7234
      2832.1934       2206.9014
  24157112.0004    2268044.56547   1781946.13846  24157113.8774   24157114.5204
     -2116.7864      -1649.4404
  20652843.8944  -26120919.04248 -20336546.42948  20652843.7524   20652842.1444
     -1649.2194      -1285.1014
  24419011.9624   -3879415.22946  -2727785.15346  24419011.4974   24419010.1934
     -1889.5354      -1472.3554
  21012462.5174  -21448986.09848 -16637194.51047  21012462.7794   21012463.3794
       646.7954        503.9904
  20245669.1394  -25591186.33949 -19886470.17948  20245668.4084   20245667.2964
      -346.2364       -269.7904
  21274654.1174  -16505991.84248 -12843535.64147  21274653.4254   21274654.3644
     -2451.1014      -1909.9494
  24408628.1334   -8023349.73747  -6047513.08046  24408627.3484   24408630.2814
      2768.7564       2157.4674
 06  6 24  1 15 30.0000000  0  8G11G25G23G16G13G19G 3G27
  23241015.8394  -11610306.13147  -9008421.61546  23241016.2434   23241017.5584
      2832.3394       2207.0154
  24169226.0394    2331696.39946   1831545.00846  24169224.2264   24169226.9124
     -2127.7564      -1657.9994
  20662309.9544  -26071176.23248 -20297785.80948  20662309.2284   20662308.2104
     -1667.6944      -1299.5134
  24429787.5104   -3822790.21246  -2683661.73246  24429788.0964   24429789.6644
     -1886.4044      -1469.9334
  21008826.6694  -21468091.69048 -16652081.97647  21008827.2124   21008827.6984
       625.9744        487.7664
  20247701.4724  -25580506.45349 -19878148.18148  20247700.5304   20247699.6794
      -366.3494       -285.4744
  21288680.5144  -16432279.41248 -12786097.39047  21288680.2774   21288681.9484
     -2464.1524      -1920.1194
  24392809.5884   -8106468.01147  -6112280.50846  24392808.5414   24392812.0834
      2771.5424       2159.6364
 06  6 24  1 16  0.0000000  0  8G11G25G23G16G13G19G 3G27
  23224839.0804  -11695324.45047  -9074669.62746  23224837.7344   23224838.1904
      2834.7204       2208.8734
  24181390.8884    2395625.79047   1881360.06646  24181390.2514   24181392.5784
     -2135.5204      -1664.0354
  20671872.0954  -26020926.36648 -20258630.08348  20671872.1144   20671870.4404
     -1683.3664      -1311.7054
  24440539.9164   -3766288.60347  -2639634.51046  24440539.0554   24440540.1854
     -1881.1544      -1465.8284
  21005302.6714  -21486610.63548 -16666512.31847  21005303.0584   21005303.4954
       607.5794        473.4434
  20249839.2024  -25569272.24649 -19869394.25048  20249838.5114   20249837.3854
      -383.6064       -298.9114
  21302774.2534  -16358216.37148 -12728385.92547  21302774.1944   21302775.6214
     -2474.6704      -1928.3124
  24376969.6474   -8189711.49747  -6177145.49246  24376969.2924   24376971.1424
      2777.1664       2164.0264
 06  6 24  1 16 30.0000000  0  8G11G25G23G16G13G19G 3G27
  23208652.6914  -11780375.23747  -9140942.92146  23208652.9124   23208654.2344
      2835.5664       2209.5374
  24193608.4814    2459834.46647   1931392.76546  24193609.7564   24193610.8054
     -2144.8144      -1671.2784
  20681530.4274  -25970169.77948 -20219079.50548  20681530.3074   20681529.0674
     -1700.2354      -1324.8694
  24451267.5984   -3709907.77847  -2595701.41446  24451266.7064   24451266.7284
     -1877.2164      -1462.7694
  21001890.7924  -21504539.91548 -16680483.17847  21001891.4724   21001892.0274
       587.7054        457.9354
  20252082.9264  -25557482.51549 -19860207.44148  20252082.1034   20252081.0394
      -402.1774       -313.3834
  21316934.9144  -16283803.19348 -12670401.63447  21316934.4114   21316935.9774
     -2486.3404      -1937.4104
  24361105.1664   -8273076.42747  -6242105.11646  24361103.6744   24361106.1594
      2780.7014       2166.7734
 06  6 24  1 17  0.0000000  0  8G11G25G23G16G13G19G 3G27
  23192462.0304  -11865454.42147  -9207238.33846  23192462.3654   23192463.6064
      2835.4004       2209.4094
  24205880.4194    2524324.02146   1981644.39546  24205881.2904   24205882.6444
     -2155.7324      -1679.7964
  20691285.7494  -25918906.53748 -20179134.13148  20691285.5554   20691284.2324
     -1718.4434      -1339.0584
  24461973.7834   -3653645.81946  -2551860.97546  24461971.9314   24461973.3084
     -1874.4014      -1460.5654
  20998591.7844  -21521877.85748 -16693993.25347  20998591.4534   20998592.1574
       566.7894        441.6484
  20254431.8644  -25545137.01749 -19850587.56348  20254430.7484   20254430.0954
      -421.9694       -328.8184
  21331161.3124  -16209040.85348 -12612145.25947  21331161.5824   21331162.3904
     -2499.2364      -1947.4694
  24345218.0454   -8356559.52847  -6307156.78446  24345217.6004   24345220.3434
      2783.5824       2169.0134
 06  6 24  1 17 30.0000000  0  8G11G25G23G16G13G19G 3G27
  23176266.0674  -11950563.12947  -9273556.74646  23176267.4204   23176267.6644
      2837.5674       2211.0994
  24218207.9614    2589090.12347   2032111.42946  24218206.5224   24218208.4134
     -2163.5734      -1685.8954
  20701136.0784  -25867142.47448 -20138798.51048  20701135.4824   20701134.2634
     -1733.7544      -1350.9684
  24472657.4304   -3597506.63247  -2508116.16446  24472657.1824   24472656.4924
     -1869.1774      -1456.5054
  20995404.4524  -21538627.76548 -16707045.13547  20995404.9134   20995405.8724
       548.5294        427.4344
  20256886.1424  -25532240.37349 -19840538.22548  20256885.2254   20256884.3234
      -438.9894       -342.0674
  21345453.7254  -16133935.87448 -12553621.90247  21345453.3434   21345454.7404
     -2509.2744      -1955.2624
  24329310.4244   -8440163.21247  -6372302.44746  24329310.3014   24329312.3774
      2788.7914       2173.0774
 06  6 24  1 18  0.0000000  0  8G11G25G23G16G13G19G 3G27
  23160067.1454  -12035700.34147  -9339897.42646  23160066.4134   23160066.8164
      2838.4884       2211.7954
  24230583.0634    2654130.91747   2082792.53946  24230581.9304   24230584.3214
     -2172.5304      -1692.8794
  20711080.6594  -25814881.81548 -20098075.93348  20711080.7824   20711079.3444
     -1750.1964      -1363.7824
  24483316.2984   -3541491.23446  -2464467.75546  24483317.5054   24483317.2234
     -1865.3014      -1453.4864
  20992328.1014  -21554790.69648 -16719639.61447  20992328.7904   20992329.7194
       529.1834        412.3574
  20259444.7354  -25518794.93849 -19830061.25648  20259443.8654   20259442.8694
      -457.2884       -356.3234
  21359810.2144  -16058492.59348 -12494834.93247  21359810.2824   21359811.3094
     -2520.4154      -1963.9524
  24313377.4444   -8523887.75547  -6437542.28146  24313376.4064   24313380.1684
      2792.9894       2176.3514
 06  6 24  1 18 30.0000000  0  8G11G25G23G16G13G19G 3G27
  23143861.3144  -12120857.70747  -9406253.74146  23143860.5094   23143862.9664
      2840.6524       2213.4854
  24243013.2474    2719451.81946   2133691.94946  24243012.2014   24243012.8604
     -2180.3294      -1698.9464
  20721120.9684  -25762120.98448 -20056963.61548  20721120.5124   20721119.4234
     -1765.4244      -1375.6614
  24493952.9874   -3485593.78246  -2420911.31346  24493952.6224   24493953.8484
     -1859.6694      -1449.0924
  20989365.6924  -21570360.48048 -16731771.91347  20989366.3444   20989366.7914
       510.7024        397.9484
  20262108.9154  -25504795.67249 -19819152.73148  20262107.9654   20262107.0334
      -474.3314       -369.6224
  21374231.1444  -15982707.81148 -12435781.85847  21374230.8554   21374232.2104
     -2530.2784      -1971.6514
  24297423.7414   -8607725.96547  -6502870.65346  24297423.0774   24297426.8354
      2798.1094       2180.3384
 06  6 24  1 19  0.0000000  0  8G11G25G23G16G13G19G 3G27
  23127651.9514  -12206039.31147  -9472628.96246  23127651.9844   23127651.6434
      2839.3294       2212.4534
  24255495.4464    2785045.78146   2184804.12446  24255495.3294   24255495.4514
     -2191.3604      -1707.5504
  20731254.4514  -25708868.70548 -20015468.34048  20731254.5334   20731253.0414
     -1783.6114      -1389.8184
  24504566.6614   -3429820.63646  -2377451.74646  24504565.5084   24504566.4594
     -1857.0484      -1447.0584
  20986514.3864  -21585343.54648 -16743447.02247  20986514.5844   20986515.2114
       489.1324        381.1404
  20264876.4114  -25490250.46149 -19807818.79148  20264875.6134   20264875.0534
      -494.2944       -385.1674
  21388716.0634  -15906590.72648 -12376469.84347  21388715.7174   21388716.6394
     -2543.2514      -1981.7614
  24281446.7424   -8691683.19147  -6568291.79846  24281446.8274   24281448.5014
      2800.1374       2181.9264
 06  6 24  1 19 30.0000000  0  8G11G25G23G16G13G19G 3G27
  23111439.6384  -12291234.57047  -9539014.81746  23111439.6844   23111440.0904
      2839.9734       2212.9694
  24268029.4834    2850920.39546   2236134.96446  24268029.4254   24268030.3774
     -2200.3374      -1714.5464
  20741482.3944  -25655119.26048 -19973585.67148  20741482.4764   20741481.3994
     -1799.8524      -1402.4744
  24515157.8694   -3374163.85547  -2334082.85946  24515158.4884   24515157.8464
     -1853.0314      -1443.9214
  20983776.9974  -21599731.39248 -16754658.32147  20983776.7224   20983777.5014
       469.7604        366.0544
  20267749.7514  -25475151.98649 -19796053.73848  20267748.8464   20267748.1874
      -512.4504       -399.3114
  21403264.9454  -15830136.23048 -12316894.91147  21403264.4094   21403265.9054
     -2554.1874      -1990.2714
  24265448.9424   -8775749.96647  -6633798.30546  24265448.8334   24265451.6014
      2804.1234       2185.0274
 06  6 24  1 20  0.0000000  0  8G11G25G23G16G13G19G 3G27
  23095225.0944  -12376446.59447  -9605413.75646  23095223.6694   23095224.0514
      2840.7214       2213.5574
  24280617.0624    2917069.34546   2287679.58846  24280617.4994   24280618.7764
     -2209.6994      -1721.8494
  20751804.4164  -25600881.02048 -19931322.11848  20751803.9824   20751802.6184
     -1816.0424      -1415.0844
  24525726.0034   -3318629.02447  -2290808.96746  24525725.2694   24525724.9084
     -1849.2474      -1440.9724
  20981150.9144  -21613529.65148 -16765410.21747  20981151.3094   20981151.9174
       450.2044        350.8164
  20270726.3694  -25459507.48949 -19783863.22048  20270725.8884   20270725.3554
      -530.5574       -413.4114
  21417875.8804  -15753352.99248 -12257063.82247  21417875.6944   21417877.2034
     -2565.1374      -1998.7954
  24249430.5864   -8859930.68347  -6699393.58546  24249430.6114   24249433.1154
      2807.9674       2188.0304
 06  6 24  1 20 30.0000000  0  8G11G25G23G16G13G19G 3G27
  23079006.6034  -12461672.85047  -9671823.76346  23079004.8124   23079005.7854
      2840.9674       2213.7224
  24293256.8094    2983492.16946   2339437.62446  24293257.5644   24293259.6064
     -2219.0234      -1729.0994
  20762217.0614  -25546156.16048 -19888679.38448  20762217.5004   20762215.7504
     -1832.3624      -1427.8204
  24536271.2284   -3263215.85746  -2247629.82246  24536269.1714   24536269.8854
     -1845.3914      -1437.9844
  20978637.0364  -21626738.00448 -16775702.43247  20978637.9524   20978638.6114
       430.0744        335.1294
  20273807.1554  -25443318.06449 -19771248.07748  20273806.4044   20273805.9544
      -548.9364       -427.7394
  21432549.8644  -15676243.65448 -12196978.62847  21432548.9844   21432550.1674
     -2575.7474      -2007.0664
  24233389.9384   -8944224.14947  -6765076.72546  24233389.4414   24233392.0824
      2811.5374       2190.8094
 06  6 24  1 21  0.0000000  0  8G11G25G23G16G13G19G 3G27
  23062786.6174  -12546906.79847  -9738239.77146  23062786.7904   23062788.5494
      2840.9374       2213.7144
  24305950.8594    3050192.33446   2391411.75246  24305949.8104   24305951.0244
     -2228.1214      -1736.1994
  20772724.7374  -25490943.45848 -19845656.51548  20772723.9754   20772722.9434
     -1848.5534      -1440.4274
  24546790.9324   -3207920.10446  -2204542.20746  24546790.2164   24546793.8584
     -1841.1044      -1434.6484
  20976236.5204  -21639352.53548 -16785531.93247  20976237.5544   20976237.7744
       410.5104        319.8794
  20276992.5444  -25426580.38349 -19758205.72248  20276991.3554   20276991.1384
      -567.0174       -441.8244
  21447285.7574  -15598806.91548 -12136638.31147  21447285.2684   21447286.2674
     -2586.7424      -2015.6484
  24217327.9034   -9028624.84247  -6830843.42846  24217327.7104   24217331.0334
      2815.4414       2193.8504
 06  6 24  1 21 30.0000000  0  8G11G25G23G16G13G19G 3G27
  23046564.5784  -12632150.03247  -9804663.03046  23046564.1644   23046566.6184
      2841.7124       2214.3024
  24318695.7314    3117165.26146   2443598.49146  24318695.3984   24318697.0024
     -2237.1504      -1743.2214
  20783323.0964  -25435249.05948 -19802258.29548  20783322.4564   20783321.2884
     -1864.2664      -1452.6744
  24557292.5414   -3152745.52646  -2161549.09846  24557290.3334   24557292.7814
     -1837.0784      -1431.4894
  20973948.8354  -21651376.76948 -16794901.45747  20973949.2824   20973949.3794
       391.0774        304.7334
  20280280.3674  -25409300.11449 -19744740.56848  20280279.5554   20280279.1814
      -584.7714       -455.6684
  21462081.4674  -15521049.59448 -12076048.18947  21462081.5114   21462083.0174
     -2597.2834      -2023.8544
  24201246.3574   -9113135.33247  -6896695.67946  24201245.8694   24201248.0724
      2818.9054       2196.5514
 06  6 24  1 22  0.0000000  0  8G11G25G23G16G13G19G 3G27
  23030342.7524  -12717399.43447  -9871091.06846  23030341.9984   23030342.8254
      2840.9244       2213.7004
  24331492.4684    3184410.94046   2495997.66246  24331492.3804   24331493.9084
     -2246.7104      -1750.6884
  20794012.2124  -25379074.97248 -19758486.29648  20794011.9424   20794010.6964
     -1881.0584      -1465.7554
  24567769.1844   -3097691.58747  -2118649.92546  24567769.9094   24567770.9114
     -1833.8394      -1428.9704
  20971772.6004  -21662810.46648 -16803810.83247  20971773.0084   20971773.8094
       370.7514        288.9044
  20283672.2054  -25391477.90449 -19730853.12448  20283671.2214   20283670.6134
      -603.6744       -470.3994
  21476939.2884  -15442974.08148 -12015210.13147  21476938.6674   21476940.7014
     -2608.3884      -2032.5124
  24185143.9944   -9197753.98147  -6962632.23046  24185142.7134   24185147.1024
      2821.8894       2198.8704
 06  6 24  1 22 30.0000000  0  8G11G25G23G16G13G19G 3G27
  23014121.5634  -12802648.94147  -9937519.21346  23014120.4554   23014122.6814
      2841.0894       2213.8304
  24344340.4134    3251932.15046   2548611.54246  24344340.5454   24344341.8234
     -2256.3544      -1758.1964
  20804793.7354  -25322420.27348 -19714339.79248  20804793.2874   20804791.8734
     -1897.1164      -1478.2704
  24578223.6214   -3042754.70547  -2075841.95446  24578223.7924   24578223.1164
     -1830.1524      -1426.0944
  20969710.8074  -21673649.90448 -16812257.14247  20969710.2654   20969711.5454
       350.7154        273.2774
  20287166.9164  -25373111.19749 -19716541.39748  20287165.9764   20287165.8864
      -621.9294       -484.6214
  21491857.0484  -15364579.68748 -11954123.60447  21491856.6774   21491858.4994
     -2619.3284      -2041.0444
  24169022.0144   -9282475.98947  -7028649.30846  24169020.5374   24169024.5634
      2824.8454       2201.1794
 06  6 24  1 23  0.0000000  0  8G11G25G23G16G13G19G 3G27
  22997896.2534  -12887900.30247 -10003948.77746  22997896.9644   22997898.9294
      2841.7784       2214.3704
  24357241.8084    3319723.99846   2601436.37045  24357241.7824   24357242.2314
     -2264.4434      -1764.5014
  20815664.4884  -25265291.94848 -19669824.22748  20815664.5264   20815662.8094
     -1912.1494      -1489.9824
  24588653.4034   -2987938.94346  -2033128.39046  24588654.1874   24588653.3734
     -1824.8514      -1421.9764
  20967759.5964  -21683899.50848 -16820243.84947  20967760.0424   20967760.8434
       331.8624        258.5974
  20290764.4374  -25354206.12449 -19701810.16248  20290763.8294   20290763.3354
      -639.1414       -498.0264
  21506834.1504  -15285873.64448 -11892794.22247  21506834.5284   21506835.0904
     -2628.8884      -2048.4864
  24152880.7614   -9367304.24547  -7094749.17346  24152879.2844   24152882.4204
      2829.3774       2204.7074
 06  6 24  1 23 30.0000000  0  8G11G25G23G16G13G19G 3G27
  22981675.1924  -12973148.96447 -10070376.24746  22981676.2414   22981676.5814
      2840.9464       2213.7314
  24370193.3684    3387787.93246   2654473.23046  24370193.7524   24370195.2574
     -2274.0804      -1772.0054
  20826625.6344  -25207690.30148 -19624939.84048  20826625.6604   20826624.0884
     -1928.7224      -1502.9004
  24599061.6184   -2933242.08146  -1990507.44246  24599062.2534   24599060.8724
     -1821.9954      -1419.7414
  20965921.9734  -21693557.20148 -16827769.31947  20965922.2514   20965923.0934
       311.2154        242.5064
  20294464.5874  -25334761.87149 -19686658.78848  20294463.9414   20294463.4444
      -657.8934       -512.6464
  21521871.1014  -15206856.58748 -11831222.49447  21521870.6124   21521872.1484
     -2639.9924      -2057.1444
  24136717.5914   -9452235.25947  -7160929.12446  24136717.7324   24136719.6444
      2832.0944       2206.8204
 06  6 24  1 24  0.0000000  0  8G11G25G23G16G13G19G 3G27
  22965454.2484  -13058389.90647 -10136797.72146  22965453.1884   22965454.4964
      2841.5294       2214.1734
  24383199.2504    3456125.83346   2707723.44946  24383197.3484   24383198.5984
     -2282.2814      -1778.3964
  20837677.0624  -25149615.52248 -19579686.77748  20837676.5304   20837675.3854
     -1943.4074      -1514.3514
  24609449.0594   -2878661.51346  -1947977.11346  24609449.7844   24609447.2004
     -1817.1484      -1415.9704
  20964197.3954  -21702620.48048 -16834831.61947  20964197.4034   20964198.3254
       292.4344        227.8624
  20298267.7664  -25314776.98749 -19671086.14348  20298266.8194   20298266.5804
      -674.7634       -525.7974
  21536966.6334  -15127528.94848 -11769408.75747  21536966.3614   21536967.2694
     -2649.3304      -2064.4194
  24120536.6254   -9537265.11547  -7227186.08846  24120535.9534   24120539.1494
      2836.3034       2210.1094
 06  6 24  1 24 30.0000000  0  8G11G25G23G16G13G19G 3G27
  22949233.8654  -13143626.78247 -10203216.00646  22949234.0394   22949235.9034
      2840.8444       2213.6444
  24396251.8524    3524730.72546   2761181.80446  24396252.2544   24396253.5244
     -2291.7164      -1785.7494
  20848816.5124  -25091076.19048 -19534071.72548  20848816.6864   20848815.1414
     -1959.3374      -1526.7474
  24619812.6964   -2824203.26447  -1905542.09446  24619811.4374   24619813.0504
     -1813.5974      -1413.1984
  20962584.7304  -21711095.54648 -16841435.56547  20962585.1504   20962585.4584
       272.1784        212.0944
  20302171.9194  -25294258.96249 -19655098.06048  20302171.2264   20302171.0204
      -693.1484       -540.1094
  21552119.4344  -15047899.88848 -11707360.14747  21552119.0634   21552119.9304
     -2659.8694      -2072.6094
  24104337.3684   -9622398.38547  -7293523.64346  24104336.3704   24104338.4904
      2839.1044       2212.2904
 06  6 24  1 25  0.0000000  0  8G11G25G23G16G13G19G 3G27
  22933016.1324  -13228850.21347 -10269623.82446  22933015.6914   22933016.8454
      2840.8644       2213.6504
  24409358.6744    3593608.73446   2814852.98445  24409359.5904   24409360.1044
     -2299.9734      -1792.1744
  20860045.5754  -25032068.65648 -19488091.84048  20860045.6424   20860044.0424
     -1974.2834      -1538.3934
  24630153.2024   -2769860.32647  -1863196.96246  24630153.0274   24630156.5054
     -1809.0194      -1409.6204
  20961084.7954  -21718975.94648 -16847576.14447  20961085.8734   20961085.9594
       253.1384        197.2384
  20306178.5824  -25273202.70549 -19638690.58548  20306178.1454   20306177.8734
      -710.4574       -553.5994
  21567330.4084  -14967965.43748 -11645073.57347  21567330.0874   21567331.4524
     -2669.3434      -2079.9964
  24088118.5984   -9707627.24547  -7359935.69246  24088117.7734   24088120.3844
      2842.8634       2215.2174
 06  6 24  1 25 30.0000000  0  8G11G25G23G16G13G19G 3G27
  22916801.3284  -13314061.81147 -10336022.42946  22916801.4634   22916802.0414
      2840.5664       2213.4114
  24422518.9764    3662755.16946   2868733.32846  24422517.8444   24422521.1214
     -2308.4854      -1798.8114
  20871362.2004  -24972599.16548 -19441751.99547  20871361.9184   20871360.6234
     -1989.3274      -1550.1174
  24640469.5074   -2715636.49447  -1820944.64446  24640469.6424   24640473.6194
     -1804.8714      -1406.3864
  20959698.2824  -21726265.77648 -16853256.53247  20959698.2134   20959698.6774
       233.6834        182.0974
  20310287.0144  -25251613.93149 -19621868.15448  20310286.4794   20310285.8744
      -727.8674       -567.1684
  21582598.1504  -14887732.49148 -11582554.39547  21582598.2204   21582599.5904
     -2678.9504      -2087.5064
  24071880.6164   -9792954.22247  -7426424.19246  24071880.6734   24071883.2394
      2846.5644       2218.0984
 06  6 24  1 26  0.0000000  0  8G11G25G23G16G13G19G 3G27
  22900589.4104  -13399256.30347 -10402407.69446  22900588.4714   22900589.9804
      2839.7244       2212.7814
  24435726.6544    3732171.75646   2922824.11446  24435726.0144   24435729.1714
     -2317.9054      -1806.1554
  20882766.9504  -24912667.99848 -19395052.39047  20882766.0684   20882765.1514
     -2005.0424      -1562.3774
  24650764.8234   -2661529.23846  -1778783.19345  24650763.6974   24650766.9724
     -1800.9044      -1403.3054
  20958423.5664  -21732962.79148 -16858474.99147  20958423.9544   20958424.3854
       213.5414        166.3964
  20314497.2874  -25229490.90749 -19604629.42548  20314496.3094   20314495.9854
      -746.0704       -581.3554
  21597922.3224  -14807201.33348 -11519802.84547  21597922.3374   21597923.5084
     -2689.1514      -2095.4464
  24055625.7314   -9878375.35947  -7492986.06846  24055625.3364   24055629.0594
      2849.1574       2220.1284
 06  6 24  1 26 30.0000000  0  8G11G25G23G16G13G19G 3G27
  22884381.1384  -13484428.71147 -10468775.76546  22884381.2454   22884382.4074
      2840.0794       2213.0374
  24448989.9344    3801860.42146   2977126.95146  24448989.0084   24448989.1964
     -2325.8584      -1812.3514
  20894258.7574  -24852275.48048 -19347993.30247  20894258.5964   20894257.6064
     -2019.1944      -1573.3964
  24661042.9614   -2607535.54546  -1736710.09745  24661042.1514   24661041.0504
     -1796.5064      -1399.8634
  20957262.7994  -21739064.51448 -16863229.58647  20957262.3264   20957263.1274
       195.0174        151.9694
  20318808.6784  -25206832.76549 -19586973.72648  20318808.1584   20318807.4374
      -762.6054       -594.2334
  21613304.5354  -14726372.23348 -11456819.14647  21613303.8244   21613305.0814
     -2697.8084      -2102.1984
  24039352.8184   -9963886.61047  -7559618.16046  24039353.7954   24039355.6464
      2853.4484       2223.4654
 06  6 24  1 27  0.0000000  0  8G11G25G23G16G13G19G 3G27
  22868177.3574  -13569584.18247 -10535130.62446  22868177.2894   22868178.0884
      2836.7484       2210.4404
  24462299.0294    3871812.40246   3031635.01246  24462298.5214   24462301.3504
     -2337.6164      -1821.5244
  20905837.1644  -24791432.09048 -19300582.87947  20905836.7964   20905835.7274
     -2036.8754      -1587.1784
  24671293.9234   -2553663.13846  -1694731.55046  24671293.7124   24671293.3484
     -1795.2274      -1398.8884
  20956212.5374  -21744579.55448 -16867527.02647  20956213.2664   20956213.7004
       172.7074        134.5624
  20323220.6074  -25183649.04349 -19568908.47648  20323219.7334   20323219.0534
      -782.8014       -609.9804
  21628740.1524  -14645256.23948 -11393611.87647  21628739.3604   21628741.0854
     -2710.0494      -2111.7434
  24023063.2364  -10049494.39747  -7626325.47246  24023062.9274   24023065.6634
      2853.7974       2223.7364
 06  6 24  1 27 30.0000000  0  8G11G25G23G16G13G19G 3G27
  22851976.1374  -13654715.43247 -10601466.61246  22851976.2004   22851977.5734
      2837.9574       2211.4034
  24475662.3744    3942032.03646   3086351.61246  24475661.3574   24475662.6244
     -2344.6664      -1827.0174
  20917501.5594  -24730135.27148 -19252819.13547  20917500.8304   20917500.0144
     -2050.0814      -1597.4684
  24681522.8784   -2499906.77446  -1652843.45846  24681523.5804   24681525.5864
     -1788.9564      -1394.0004
  20955276.4794  -21749502.58948 -16871363.15947  20955276.3914   20955276.8004
       154.9834        120.7564
  20327732.8774  -25159936.35149 -19550431.04548  20327732.1554   20327731.3884
      -798.6404       -622.3214
  21644230.5614  -14563850.95348 -11330179.20847  21644230.3214   21644231.6864
     -2717.7824      -2117.7544
  24006755.4074  -10135192.39947  -7693103.09546  24006754.6754   24006757.2654
      2858.9434       2227.7434
 06  6 24  1 28  0.0000000  0  8G11G25G23G16G13G19G 3G27
  22835782.0304  -13739821.15447 -10667782.70446  22835783.1684   22835782.9114
      2836.1394       2209.9784
  24489076.2224    4012517.32246   3141275.16246  24489075.4374   24489076.4914
     -2354.2304      -1834.4644
  20929251.4334  -24668389.11048 -19204705.25147  20929250.9854   20929249.9044
     -2065.9534      -1609.8394
  24691730.2454   -2446267.46546  -1611046.63446  24691728.1244   24691731.4534
     -1786.4654      -1392.0614
  20954451.6254  -21753835.05848 -16874739.11147  20954452.1194   20954452.7324
       134.2044        104.5694
  20332345.6584  -25135697.17449 -19531543.36548  20332344.8694   20332344.2324
      -816.9814       -636.6094
  21659776.3314  -14482160.38648 -11266524.23347  21659775.5804   21659777.2994
     -2728.1614      -2125.8324
  23990429.7594  -10220980.61447  -7759951.00046  23990429.1164   23990432.8494
      2860.6244       2229.0664
 06  6 24  1 28 30.0000000  0  8G11G25G23G16G13G19G 3G27
  22819591.9844  -13824894.59947 -10734073.65646  22819593.3254   22819595.0144
      2835.0214       2209.1174
  24502539.1684    4083271.13746   3196408.00046  24502537.4364   24502539.2854
     -2362.9264      -1841.2474
  20941087.0574  -24606192.84348 -19156240.63447  20941086.3584   20941085.7854
     -2080.8784      -1621.4604
  24701916.1824   -2392741.31946  -1569337.97746  24701914.8754   24701916.3434
     -1782.7754      -1389.1884
  20953740.2834  -21757573.98448 -16877652.56647  20953740.3294   20953740.6944
       114.4494         89.1714
  20337058.8694  -25110929.34549 -19512243.74948  20337057.9454   20337057.3584
      -834.5174       -650.2744
  21675375.6774  -14400183.98348 -11202646.51747  21675375.6974   21675376.7794
     -2737.6244      -2133.2134
  23974088.9394  -10306853.55947  -7826864.94646  23974089.0574   23974091.1244
      2863.5664       2231.3494
 06  6 24  1 29  0.0000000  0  8G11G25G23G16G13G19G 3G27
  22803410.3974  -13909937.42747 -10800340.76446  22803409.8684   22803410.4664
      2834.1614       2208.4484
  24516053.7924    4154288.62346   3251746.31045  24516054.2564   24516053.5564
     -2372.2064      -1848.4754
  20953006.5664  -24543553.06948 -19107430.43347  20953006.3374   20953005.3294
     -2095.6104      -1632.9484
  24712080.6904   -2339332.36447  -1527720.58046  24712080.7164   24712080.5434
     -1778.5054      -1385.8414
  20953141.3984  -21760723.59448 -16880106.81747  20953141.2024   20953141.6544
        94.9954         74.0204
  20341871.5054  -25085638.63449 -19492536.69548  20341870.6374   20341869.9264
      -851.9484       -663.8594
  21691028.0454  -14317928.63648 -11138551.44247  21691027.9634   21691029.4414
     -2746.8074      -2140.3674
  23957730.5204  -10392813.91147  -7893846.99546  23957730.6744   23957732.5414
      2866.4704       2233.6174
 06  6 24  1 29 30.0000000  0  8G11G25G23G16G13G19G 3G27
  22787232.3124  -13994944.94947 -10866580.34146  22787233.2504   22787234.9564
      2834.0524       2208.3664
  24529617.6884    4225571.04946   3307291.04445  24529617.2074   24529618.3304
     -2379.4914      -1854.1324
  20965010.9204  -24480470.74248 -19058275.38147  20965010.5384   20965009.4924
     -2108.9954      -1643.3734
  24722220.0904   -2286037.98146  -1486192.45746  24722220.4094   24722219.3414
     -1773.6404      -1382.0544
  20952653.4174  -21763282.35548 -16882100.66147  20952654.5614   20952654.8384
        76.5854         59.6764
  20346783.5714  -25059824.59749 -19472421.85448  20346782.9174   20346782.0544
      -868.1414       -676.4764
  21706733.8504  -14235395.11748 -11074239.61847  21706733.8484   21706735.1644
     -2754.8864      -2146.6844
  23941356.3084  -10478858.07647  -7960894.35046  23941356.6854   23941359.6864
      2870.5564       2236.7934
 06  6 24  1 30  0.0000000  0  8G11G25G23G16G13G19G 3G27
  22771064.1194  -14079917.34847 -10932792.53846  22771063.5694   22771065.1254
      2831.0044       2205.9674
  24543233.2614    4297114.92846   3363039.51846  24543233.7704   24543235.1704
     -2390.3384      -1862.6134
  20977098.5924  -24416950.84948 -19008779.36747  20977098.1624   20977096.9524
     -2125.3124      -1656.0904
  24732338.7874   -2232860.51646  -1444755.47045  24732338.9514   24732339.7954
     -1771.9144      -1380.7244
  20952278.9894  -21765253.17048 -16883636.35747  20952279.1314   20952280.3054
        55.0974         42.9344
  20351794.4104  -25033491.58149 -19451902.60748  20351793.8974   20351793.1104
      -887.2124       -691.3334
  21722491.8584  -14152588.89848 -11009715.29447  21722490.9484   21722492.1264
     -2765.5864      -2154.9964
  23924967.5494  -10564987.26547  -8028007.95446  23924967.6844   23924969.6094
      2871.6254       2237.6324
 06  6 24  1 30 30.0000000  0  8G11G25G23G16G13G19G 3G27
  22754902.3194  -14164848.74947 -10998972.81546  22754900.7714   22754901.5274
      2831.1804       2206.1164
  24556895.8784    4368922.58946   3418993.54646  24556896.7104   24556898.1764
     -2397.1324      -1867.8874
  20989269.0844  -24352993.48348 -18958942.46947  20989268.4284   20989267.9754
     -2138.2474      -1666.1734
  24742439.8884   -2179796.82246  -1403407.16546  24742438.1234   24742438.6004
     -1766.1044      -1376.1894
  20952016.2914  -21766633.21048 -16884711.72047  20952016.3904   20952017.3064
        36.9764         28.8124
  20356904.7394  -25006637.93049 -19430977.67648  20356903.7334   20356903.0274
      -902.9804       -703.6204
  21738300.9024  -14069509.66448 -10944978.25047  21738300.5664   21738302.8534
     -2773.1094      -2160.8554
  23908561.8844  -10651196.69447  -8095184.09246  23908562.3274   23908564.1074
      2875.6874       2240.7964
 06  6 24  1 31  0.0000000  0  8G11G25G23G16G13G19G 3G27
  22738747.4444  -14249736.77447 -11065119.28946  22738747.7084   22738747.7164
      2830.0584       2205.2394
  24570611.3204    4440992.96246   3475152.25546  24570610.7314   24570611.7524
     -2405.7584      -1874.6204
  21001522.5424  -24288601.59148 -18908766.97847  21001522.0084   21001521.0204
     -2152.2274      -1677.0594
  24752515.4364   -2126846.71946  -1362147.32346  24752514.9394   24752515.0964
     -1762.0104      -1373.0094
  20951866.1594  -21767423.68948 -16885327.67947  20951866.1354   20951866.4524
        17.7904         13.8574
  20362113.0934  -24979265.53449 -19409648.52648  20362112.5454   20362112.0284
      -919.7084       -716.6634
  21754161.8044  -13986160.70348 -10880031.02647  21754161.9494   21754162.8984
     -2781.6124      -2167.4944
  23892141.2534  -10737485.42647  -8162422.02846  23892140.8094   23892144.5114
      2878.6174       2243.0764
 06  6 24  1 31 30.0000000  0  8G11G25G23G16G13G19G 3G27
  22722602.0384  -14334580.45847 -11131231.18846  22722602.4614   22722604.3214
      2826.8294       2202.7384
  24584374.0834    4513323.35546   3531513.58546  24584374.0924   24584376.9154
     -2416.1874      -1882.7564
  21013858.1134  -24223779.58048 -18858256.32347  21013857.8154   21013856.3124
     -2168.4494      -1689.6924
  24762567.1164   -2074011.60546  -1320977.08646  24762567.4564   24762570.2804
     -1759.9514      -1371.3944
  20951827.6944  -21767626.43848 -16885485.67147  20951827.3024   20951828.4954
        -3.6684         -2.8674
  20367420.4014  -24951377.80049 -19387917.81448  20367419.6394   20367418.6814
      -938.7064       -731.4584
  21770072.6904  -13902546.43748 -10814877.05847  21770072.7204   21770073.8364
     -2792.2484      -2175.7874
  23875706.0844  -10823853.20847  -8229721.54046  23875706.2174   23875709.1974
      2880.1144       2244.2344
 06  6 24  1 32  0.0000000  0  8G11G25G23G16G13G19G 3G27
  22706466.6484  -14419373.59547 -11197303.72146  22706467.0474   22706467.3214
      2825.0844       2201.3694
  24598187.5334    4585916.63046   3588079.76545  24598185.6984   24598193.2024
     -2425.0794      -1889.6754
  21026275.2594  -24158526.70448 -18807409.93347  21026275.0384   21026273.9554
     -2182.6954      -1700.8044
  24772601.0524   -2021287.47946  -1279893.34445  24772602.9914   24772599.6194
     -1755.7974      -1368.1654
  20951901.1224  -21767238.21148 -16885183.16147  20951901.3374   20951902.4894
       -23.2584        -18.1174
  20372825.2254  -24922972.43449 -19365783.75548  20372824.8154   20372824.0914
      -955.9754       -744.9074
  21786035.3914  -13818666.10948 -10749515.76447  21786035.1724   21786036.6234
     -2800.9414      -2182.5484
  23859257.2874  -10910294.82247  -8297078.60146  23859257.2484   23859259.8904
      2881.9394       2245.6684
 06  6 24  1 32 30.0000000  0  8G11G25G23G16G13G19G 3G27
  22690339.8454  -14504116.70347 -11263337.26046  22690340.9394   22690341.4644
      2823.9734       2200.4934
  24612052.0684    4658768.83546   3644847.68145  24612053.5694   24612053.3564
     -2432.8014      -1895.6894
  21038773.2224  -24092848.88448 -18756232.41947  21038773.1354   21038771.7504
     -2196.0514      -1711.1924
  24782609.8954   -1968677.19746  -1238898.30545  24782612.1984   24782611.6174
     -1751.1994      -1364.5734
  20952086.8504  -21766263.11048 -16884423.34347  20952087.2604   20952087.8634
       -41.9504        -32.6954
  20378328.7124  -24894054.80349 -19343250.52648  20378327.6634   20378326.7874
      -972.2664       -757.6164
  21802046.5684  -13734525.61448 -10683951.74747  21802046.4434   21802047.3174
     -2808.8244      -2188.7044
  23842793.8194  -10996812.07047  -8364494.58846  23842793.8364   23842795.7664
      2885.4124       2248.3684
 06  6 24  1 33  0.0000000  0  6G11G23G13G19G 3G27
  22674224.5134  -14588810.12847 -11329332.08546  22674223.6984   22674225.5074
      2822.1994       2199.1294
  21051351.0964  -24026752.34148 -18704728.62647  21051350.5104   21051349.3594
     -2210.1324      -1722.1774
  20952382.8644  -21764704.70448 -16883209.00747  20952383.5814   20952384.2364
       -61.6394        -48.0254
  20383927.7254  -24864629.56249 -19320321.76048  20383926.8364   20383926.4634
      -989.3614       -770.9304
  21818105.7894  -13650131.25348 -10618189.91347  21818105.8914   21818107.1034
     -2817.4784      -2195.4434
  23826315.7654  -11083406.62047  -8431970.82846  23826315.5934   23826318.2304
      2887.6834       2250.1374
 06  6 24  1 33 30.0000000  0  6G11G23G13G19G 3G27
  22658118.5064  -14673441.54847 -11395278.60146  22658118.8554   22658119.7624
      2818.9854       2196.6194
  21064009.5024  -23960230.08648 -18652893.11447  21064009.6144   21064007.9764
     -2225.5694      -1734.2124
  20952792.6444  -21762553.78548 -16881532.96947  20952793.2024   20952793.6434
       -82.5894        -64.3514
  20389625.5474  -24834688.76949 -19296991.26348  20389624.7564   20389623.9304
     -1007.6104       -785.1544
  21834215.4394  -13565476.03448 -10552224.82147  21834215.5224   21834216.5964
     -2827.2044      -2203.0294
  23809824.1144  -11170067.27247  -8499498.55246  23809823.8094   23809826.2274
      2888.6534       2250.9014
 06  6 24  1 34  0.0000000  0  6G11G23G13G19G 3G27
  22642026.8634  -14758014.71347 -11461179.72946  22642026.3424   22642025.8624
      2818.1884       2195.9924
  21076747.3774  -23893291.52048 -18600733.19847  21076747.7184   21076746.2954
     -2237.8404      -1743.7644
  20953313.2474  -21759817.32748 -16879400.67047  20953313.4394   20953314.6854
      -100.6434        -78.4194
  20395419.5994  -24804240.72249 -19273265.50648  20395418.7194   20395418.0944
     -1023.0364       -797.1704
  21850372.7654  -13480569.20048 -10486063.67447  21850372.5584   21850374.2264
     -2834.3004      -2208.5464
  23793320.8214  -11256798.49947  -8567081.28946  23793319.8594   23793321.0314
      2892.5694       2253.9384
 06  6 24  1 34 30.0000000  0  6G11G23G13G19G 3G27
  22625943.3164  -14842526.93947 -11527033.34246  22625942.2864   22625944.6774
      2815.0814       2193.5704
  21089564.0204  -23825939.32548 -18548250.97647  21089564.3214   21089562.6784
     -2252.7284      -1755.3664
  20953945.3484  -21756495.82448 -16876812.48747  20953945.8894   20953946.1274
      -121.2334        -94.4654
  20401309.8524  -24773286.80749 -19249145.56248  20401309.0104   20401308.1854
     -1040.8644       -811.0634
  21866577.6204  -13395413.46948 -10419708.56847  21866577.4924   21866578.2234
     -2843.5704      -2215.7524
  23776802.0164  -11343598.40847  -8634717.54246  23776802.0744   23776804.6914
      2893.8364       2254.9214
 06  6 24  1 35  0.0000000  0  6G11G23G13G19G 3G27
  22609873.7584  -14926971.04847 -11592833.89346  22609874.6464   22609874.8034
      2812.7674       2191.7624
  21102460.0524  -23758172.14448 -18495445.38847  21102459.7664   21102458.6334
     -2266.6384      -1766.2214
  20954689.3114  -21752585.98548 -16873765.86347  20954689.8384   20954690.1854
      -141.0874       -109.9484
  20407296.6504  -24741824.91349 -19224629.79448  20407296.0154   20407295.2724
     -1058.1784       -824.5674
  21882829.5994  -13310007.39748 -10353158.39047  21882828.9594   21882830.3754
     -2852.0764      -2222.4104
  23760273.1594  -11430461.43447  -8702402.96746  23760273.8684   23760274.7834
      2895.7454       2256.4224
 06  6 24  1 35 30.0000000  0  6G11G23G13G19G 3G27
  22593816.5544  -15011351.91147 -11658585.16246  22593816.4854   22593817.2694
      2812.5004       2191.5704
  21115432.3554  -23690000.09548 -18442324.31747  21115432.5824   21115431.1604
     -2278.2204      -1775.2364
  20955543.5934  -21748095.69148 -16870266.93947  20955544.0284   20955544.5164
      -158.6294       -123.6084
  20413378.9864  -24709864.30749 -19199725.41848  20413377.7974   20413377.1864
     -1072.8034       -835.9534
  21899127.2644  -13224361.20848 -10286421.10747  21899126.9694   21899129.3534
     -2858.1004      -2227.0764
  23743730.8804  -11517393.12947  -8770141.92146  23743730.6964   23743732.8004
      2899.8314       2259.5964
 06  6 24  1 36  0.0000000  0  6G11G23G13G19G 3G27
  22577773.9554  -15095659.72147 -11724279.51046  22577773.1684   22577775.4434
      2809.1054       2188.9134
  21128483.2524  -23621419.30448 -18388884.74747  21128483.2424   21128482.0344
     -2292.7604      -1786.5704
  20956509.7054  -21743018.68148 -16866310.82747  20956509.8594   20956510.9934
      -178.8534       -139.3714
  20419556.3004  -24677399.30649 -19174428.00748  20419555.8154   20419554.9394
     -1090.5854       -849.8154
  21915471.6924  -13138470.89348 -10219493.59447  21915471.7294   21915473.5344
     -2867.0854      -2234.1014
  23727176.1804  -11604384.78947  -8837927.59846  23727175.9724   23727177.8944
      2900.7824       2260.3524
 06  6 24  1 36 30.0000000  0  6G11G23G13G19G 3G27
  22561744.4454  -15179895.49347 -11789917.71646  22561743.7334   22561744.9024
      2806.1014       2186.5614
  21141610.5024  -23552436.31448 -18335131.77047  21141609.9064   21141608.7114
     -2306.4374      -1797.2294
  20957587.4694  -21737359.34748 -16861900.96547  20957587.2764   20957587.8954
      -198.5814       -154.7384
  20425829.1684  -24644435.50149 -19148741.92048  20425828.6834   20425827.9554
     -1107.3924       -862.9034
  21931861.8054  -13052342.58748 -10152380.63447  21931860.9604   21931862.0084
     -2875.1084      -2240.3464
  23710610.6894  -11691438.54547  -8905761.63346  23710610.2594   23710612.9834
      2902.5344       2261.7074
 06  6 24  1 37  0.0000000  0  6G11G23G13G19G 3G27
  22545729.7654  -15264054.43347 -11855496.06546  22545730.0474   22545729.4374
      2804.7344       2185.4924
  21154813.4624  -23483052.15148 -18281066.19747  21154813.3484   21154812.6064
     -2318.5134      -1806.6204
  20958775.2184  -21731116.59248 -16857036.49147  20958775.1384   20958775.7094
      -216.9464       -169.0264
  20432196.9834  -24610972.84149 -19122667.11548  20432196.3214   20432195.9094
     -1122.7354       -874.8524
  21948295.7384  -12965977.39348 -10085083.09647  21948295.4584   21948297.2874
     -2881.8794      -2245.6154
  23694034.5834  -11778550.65347  -8973641.16946  23694032.8934   23694036.0434
      2905.6564       2264.1444
 06  6 24  1 37 30.0000000  0  6G11G23G13G19G 3G27
  22529727.8854  -15348135.12447 -11921013.40846  22529729.0074   22529731.0464
      2800.4724       2182.2074
  21168092.0414  -23413271.22348 -18226691.45247  21168092.0924   21168091.0534
     -2333.2164      -1818.0864
  20960072.8044  -21724292.61848 -16851719.11247  20960073.8074   20960074.3964
      -237.6924       -185.2184
  20438659.2534  -24577014.84849 -19096206.33448  20438658.3084   20438657.6134
     -1140.6604       -888.8224
  21964774.8184  -12879379.58248 -10017604.28847  21964774.5384   21964776.0064
     -2891.1104      -2252.8214
  23677446.0974  -11865721.05947  -9041566.13546  23677445.2004   23677447.6804
      2906.1104       2264.4944
 06  6 24  1 38  0.0000000  0  6G11G23G13G19G 3G27
  22513745.1254  -15432135.28347 -11986468.02046  22513746.3324   22513745.5614
      2798.6084       2180.7484
  21181446.2754  -23343096.58848 -18172009.92547  21181446.2794   21181444.8914
     -2345.7144      -1827.8304
  20961481.7884  -21716888.36348 -16845949.56447  20961482.8974   20961483.4484
      -256.5594       -199.9174
  20445214.7654  -24542563.42549 -19069361.06748  20445214.0054   20445213.5254
     -1156.6744       -901.3044
  21981297.7764  -12792552.05448  -9949946.47447  21981296.6034   21981298.7534
     -2898.1674      -2258.3064
  23660846.1794  -11952948.05147  -9109535.17746  23660847.3244   23660848.9514
      2908.2894       2266.1994
 06  6 24  1 38 30.0000000  0  6G11G23G13G19G 3G27
  22497776.3524  -15516047.02647 -12051853.73846  22497777.4954   22497775.4494
      2795.9114       2178.6294
  21194875.5274  -23272526.10448 -18117019.93647  21194874.9834   21194873.4974
     -2358.4684      -1837.7634
  20963003.1804  -21708899.72148 -16839724.65447  20963002.6594   20963003.5024
      -275.7124       -214.8424
  20451865.2904  -24507615.48049 -19042128.90348  20451864.5574   20451864.0994
     -1172.8804       -913.9374
  21997864.6634  -12705492.65348  -9882107.99347  21997863.7484   21997865.4224
     -2905.3634      -2263.9464
  23644239.2914  -12040224.78747  -9177542.99446  23644239.4994   23644240.6714
      2910.7194       2268.0974
 06  6 24  1 39  0.0000000  0  6G11G23G13G19G 3G27
  22481823.0934  -15599876.14847 -12117175.06746  22481822.7064   22481826.0304
      2792.4194       2175.9034
  21208377.1154  -23201571.48648 -18061730.63047  21208376.6584   21208376.6024
     -2372.0864      -1848.3834
  20964632.5334  -21700336.11248 -16833051.71847  20964632.7914   20964633.2264
      -295.4744       -230.2314
  20458608.1854  -24472181.43149 -19014517.95348  20458607.4804   20458606.8314
     -1189.7134       -927.0484
  22014473.6134  -12618212.79548  -9814097.71447  22014472.7914   22014475.2174
     -2913.6254      -2270.3414
  23627620.1564  -12127558.11247  -9245594.89946  23627619.4554   23627621.7204
      2911.6594       2268.8424
 06  6 24  1 39 30.0000000  0  6G11G23G13G19G 3G27
  22465889.7284  -15683615.51247 -12182426.47847  22465889.6904   22465890.9154
      2790.3404       2174.3054
  21221953.0604  -23130231.24748 -18006140.83747  21221952.9154   21221951.4904
     -2383.7594      -1857.4724
  20966372.3074  -21691194.20648 -16825928.16247  20966372.2104   20966372.9004
      -313.6964       -244.4364
  20465443.8184  -24436259.03949 -18986526.47848  20465442.9924   20465442.5664
     -1204.8494       -938.8424
  22031125.3474  -12530710.77348  -9745914.33547  22031124.6754   22031125.4074
     -2919.8464      -2275.1984
  23610991.1024  -12214942.05047  -9313686.24746  23610990.4624   23610993.9304
      2914.4454       2271.0024
 06  6 24  1 40  0.0000000  0  6G11G23G13G19G 3G27
  22449972.0154  -15767257.30347 -12247601.83546  22449972.1044   22449974.5474
      2786.0684       2170.9474
  21235602.5904  -23058503.48348 -17950249.07947  21235602.4894   21235600.9894
     -2397.6124      -1868.2774
  20968223.1244  -21681469.66948 -16818350.60547  20968222.7834   20968222.8524
      -334.0824       -260.3244
  20472373.3534  -24399845.17649 -18958152.03748  20472372.4694   20472371.7354
     -1222.1934       -952.3594
  22047818.5524  -12442984.50148  -9677556.20847  22047818.8674   22047819.0634
     -2928.1884      -2281.7134
  23594353.7364  -12302369.82047  -9381811.74146  23594354.6624   23594355.7394
      2914.6724       2271.1704
 06  6 24  1 40 30.0000000  0  6G11G23G13G19G 3G27
  22434073.6884  -15850804.94547 -12312703.84347  22434073.5664   22434073.9134
      2783.0444       2168.6334
  21249323.7224  -22986396.93048 -17894062.15647  21249323.4274   21249322.3844
     -2409.9944      -1877.9114
  20970182.2694  -21671169.34648 -16810324.38447  20970182.5244   20970183.0934
      -353.0684       -275.1104
  20479394.4814  -24362947.74749 -18929400.79048  20479393.8884   20479393.1494
     -1238.0764       -964.7384
  22064552.9794  -12355042.64648  -9609030.09747  22064553.0934   22064554.4954
     -2935.2804      -2287.2264
  23577708.7734  -12389845.21547  -9449974.34346  23577709.0844   23577710.5234
      2916.4014       2272.5204
 06  6 24  1 41  0.0000000  0  6G11G23G13G19G 3G27
  22418193.2244  -15934259.55847 -12377733.36147  22418192.1864   22418193.3284
      2780.7464       2166.8054
  21263115.4454  -22913919.02648 -17837585.86747  21263115.4734   21263114.4274
     -2421.6924      -1887.0394
  20972251.3984  -21660298.78048 -16801853.81047  20972251.4894   20972251.8064
      -371.4804       -289.4694
  20486506.9234  -24325572.61749 -18900277.30748  20486506.1674   20486505.0234
     -1253.3734       -976.6664
  22081327.7524  -12266892.09248  -9540341.35847  22081327.3814   22081329.0594
     -2941.4894      -2292.0814
  23561053.4544  -12477370.91747  -9518176.15846  23561052.0884   23561054.3524
      2918.5384       2274.1824
 06  6 24  1 41 30.0000000  0  6G11G23G13G19G 3G27
  22402331.5484  -16017607.73847 -12442679.95347  22402331.5904   22402332.7344
      2776.5234       2163.5534
  21276980.0154  -22841061.78548 -17780813.99747  21276979.6134   21276978.7564
     -2434.8934      -1897.3254
  20974429.9644  -21648848.02448 -16792931.14847  20974430.1514   20974431.1014
      -391.4304       -305.0084
  20493711.6604  -24287711.35149 -18870775.02548  20493711.0044   20493710.2714
     -1270.2914       -989.8414
  22098142.9184  -12178525.01848  -9471483.90147  22098143.3754   22098144.5584
     -2949.3114      -2298.1684
  23544389.6974  -12564934.62147  -9586407.56346  23544389.2574   23544391.4554
      2919.4324       2274.8774
 06  6 24  1 42  0.0000000  0  6G11G23G13G19G 3G27
  22386490.6404  -16100853.36847 -12507546.62847  22386490.8014   22386491.9754
      2773.9344       2161.4794
  21290914.4554  -22767834.98448 -17723754.15647  21290914.6704   21290913.4634
     -2446.2184      -1906.1434
  20976718.1824  -21636824.97548 -16783562.54047  20976718.3564   20976718.7094
      -409.5034       -319.0804
  20501007.2954  -24249372.83949 -18840900.85948  20501006.5894   20501005.8314
     -1285.1084      -1001.3774
  22114998.9814  -12089950.82448  -9402465.06047  22114999.7034   22115000.4844
     -2955.2334      -2302.7704
  23527718.7924  -12652541.11347  -9654672.32546  23527717.5694   23527720.4274
      2921.6824       2276.6454
 06  6 24  1 42 30.0000000  0  6G11G23G13G19G 3G27
  22370671.2504  -16183988.06347 -12572326.85447  22370670.9644   22370672.7884
      2769.2094       2157.8484
  21304920.6154  -22694236.07748 -17666404.36447  21304919.9564   21304919.0064
     -2459.4624      -1916.4414
  20979116.0404  -21624224.71548 -16773744.15847  20979116.2164   20979116.3994
      -429.6264       -334.7594
  20508394.3024  -24210552.99449 -18810651.62748  20508393.6404   20508393.2034
     -1301.9074      -1014.4614
  22131893.8384  -12001166.59248  -9333282.54847  22131893.9364   22131894.7884
     -2963.0864      -2308.8904
  23511039.9744  -12740182.78247  -9722964.48646  23511040.7944   23511043.3124
      2922.0864       2276.9434
 06  6 24  1 43  0.0000000  0  6G11G23G13G19G 3G27
  22354871.4984  -16267015.93947 -12637023.86747  22354870.7194   22354870.0004
      2766.7504       2155.8954
  21318994.0534  -22620274.91748 -17608772.29347  21318994.0904   21318993.2944
     -2470.2794      -1924.8894
  20981621.3804  -21611055.60348 -16763482.51447  20981622.2694   20981622.9324
      -447.4124       -348.6344
  20515871.5824  -24171261.41549 -18780034.81348  20515870.4864   20515870.0464
     -1316.5534      -1025.8794
  22148827.1164  -11912182.37148  -9263944.20447  22148826.4894   22148828.9774
     -2968.5744      -2313.1524
  23494356.4084  -12827864.83647  -9791288.12946  23494355.1674   23494357.4824
      2924.3494       2278.7144
 06  6 24  1 43 30.0000000  0  6G11G23G13G19G 3G27
  22339092.4134  -16349933.77147 -12701635.10447  22339093.3384   22339094.0504
      2760.8674       2151.3484
  21333137.8334  -22545954.44448 -17550860.24147  21333137.0734   21333135.9574
     -2484.3094      -1935.8184
  20984235.4964  -21597318.31048 -16752778.12647  20984235.9654   20984236.7454
      -468.5874       -365.1264
  20523437.7124  -24131499.41649 -18749051.42948  20523436.7654   20523436.6144
     -1334.3754      -1039.7674
  22165797.9274  -11823000.38048  -9194451.75847  22165797.7854   22165797.8374
     -2977.3854      -2320.0444
  23477662.7224  -12915584.94547  -9859641.42646  23477662.8194   23477665.0964
      2923.4494       2278.0094
 06  6 24  1 44  0.0000000  0  6G11G23G13G19G 3G27
  22323336.4084  -16432734.14847 -12766154.85347  22323335.2684   22323336.0814
      2757.2004       2148.4514
  21347349.1334  -22471273.23248 -17492667.10147  21347348.5014   21347347.1314
     -2496.1554      -1945.0434
  20986958.3944  -21583009.40948 -16741628.33647  20986958.7774   20986960.1494
      -487.3244       -379.7224
  20531094.1014  -24091264.18149 -18717699.29748  20531093.4544   20531093.1624
     -1349.8064      -1051.7884
  22182806.4684  -11733618.48948  -9124803.54147  22182805.8274   22182808.2804
     -2983.6884      -2324.9534
  23460964.4084  -13003336.48447  -9928019.20346  23460964.0664   23460966.1334
      2924.8374       2279.0914
 06  6 24  1 44 30.0000000  0  6G11G23G13G19G 3G27
  22307602.5244  -16515415.41047 -12830581.76747  22307603.2994   22307602.2014
      2754.9734       2146.7424
  21361628.0894  -22396235.23948 -17434195.94847  21361628.0354   21361626.6374
     -2506.3444      -1953.0054
  20989790.7154  -21568131.02148 -16730034.78747  20989789.8474   20989791.1674
      -504.6014       -393.1934
  20538839.9754  -24050559.22449 -18685981.14948  20538839.3194   20538839.0614
     -1363.6654      -1062.5984
  22199852.8014  -11644040.83448  -9055002.79047  22199852.5554   22199853.7614
     -2988.3254      -2328.5804
  23444259.7044  -13091118.71147  -9996420.90546  23444259.1594   23444260.5214
      2927.5064       2281.1654
 06  6 24  1 45  0.0000000  0  6G11G23G13G19G 3G27
  22291891.6884  -16597975.61147 -12894914.35147  22291891.3534   22291892.7034
      2750.4784       2143.2284
  21375974.6114  -22320844.17148 -17375449.66947  21375973.8254   21375973.1724
     -2518.3044      -1962.3184
  20992729.7324  -21552685.48548 -16717999.30347  20992729.1354   20992730.0644
      -523.9204       -408.2504
  20546674.7704  -24009387.56349 -18653899.33148  20546674.2274   20546673.5754
     -1379.7034      -1075.0934
  22216935.0364  -11554270.93148  -8985052.23047  22216934.5754   22216936.2294
     -2995.1744      -2333.9014
  23427548.9274  -13178930.96047 -10064845.99846  23427549.6554   23427552.5664
      2927.9844       2281.5494
 06  6 24  1 45 30.0000000  0  6G11G23G13G19G 3G27
  22276205.8284  -16680410.38147 -12959149.20047  22276204.7034   22276204.7024
      2746.1874       2139.9184
  21390387.2094  -22245102.02548 -17316429.82947  21390387.3964   21390385.6604
     -2530.2674      -1971.6374
  20995776.9154  -21536672.47148 -16705521.62347  20995776.4064   20995777.4234
      -542.7504       -422.9184
  20554598.5964  -23967749.93949 -18621454.42548  20554597.6154   20554596.9264
     -1395.2694      -1087.2184
  22234054.0624  -11464310.06448  -8914952.86447  22234053.7364   22234055.6894
     -3001.3774      -2338.7394
  23410834.1054  -13266769.92047 -10133291.90046  23410835.1444   23410836.4284
      2928.7254       2282.1184
 06  6 24  1 46  0.0000000  0  6G11G23G13G19G 3G27
  22260542.3014  -16762718.96547 -13023285.72147  22260541.7474   22260542.7614
      2741.5144       2136.2224
  21404866.6434  -22169013.51448 -17257140.08947  21404866.8014   21404865.6454
     -2542.0234      -1980.8024
  20998930.7594  -21520094.39848 -16692603.64747  20998931.5444   20998932.0294
      -561.9514       -437.8884
  20562609.5454  -23925650.05349 -18588649.30648  20562609.0494   20562608.1864
     -1410.9214      -1099.4094
  22251207.7954  -11374162.80748  -8844708.26247  22251208.0484   22251210.4124
     -3008.1094      -2343.9634
  23394114.7374  -13354635.22747 -10201758.34947  23394115.4194   23394115.3934
      2929.3244       2282.5984
 06  6 24  1 46 30.0000000  0  6G11G23G13G19G 3G27
  22244902.5134  -16844900.77047 -13087323.45147  22244903.0874   22244903.8154
      2736.4474       2132.2774
  21419411.3434  -22092584.31048 -17197584.87347  21419410.4524   21419409.5394
     -2553.9454      -1990.0904
  21002192.1124  -21502955.88048 -16679248.95147  21002192.8794   21002193.6744
      -581.3234       -452.9884
  20570708.3954  -23883092.66149 -18555487.69448  20570707.4934   20570706.5754
     -1426.8794      -1111.8604
  22268397.8864  -11283834.38648  -8774322.49247  22268396.7254   22268398.6834
     -3014.8224      -2349.1924
  23377389.0264  -13442527.48747 -10270245.79747  23377388.3514   23377389.2804
      2929.3714       2282.6054
 06  6 24  1 47  0.0000000  0  6G11G23G13G19G 3G27
  22229291.0664  -16926944.36647 -13151253.49347  22229290.8724   22229291.7014
      2733.7154       2130.1484
  21434021.0514  -22015808.76148 -17137759.78147  21434020.3254   21434018.6064
     -2563.6954      -1997.6794
  21005561.9034  -21485249.39748 -16665451.69247  21005562.2624   21005563.1124
      -598.4454       -466.3214
  20578894.6324  -23840071.29249 -18521964.54048  20578893.7674   20578892.9814
     -1440.5474      -1122.5084
  22285622.0684  -11193318.88148  -8703790.94747  22285621.9174   22285623.4214
     -3019.1724      -2352.6144
  23360661.1054  -13530436.16847 -10338746.03647  23360660.7204   23360662.1184
      2931.8084       2284.4884
 06  6 24  1 47 30.0000000  0  6G11G23G13G19G 3G27
  22213703.9514  -17008856.85347 -13215081.36847  22213703.8464   22213704.2104
      2727.7324       2125.4984
  21448694.0304  -21938699.90548 -17077674.97047  21448694.0044   21448692.2004
     -2576.2894      -2007.4794
  21009037.3404  -21466985.67248 -16651220.22147  21009037.5194   21009038.5304
      -618.4944       -481.9504
  20587167.4524  -23796597.97149 -18488089.21448  20587166.6154   20587165.9344
     -1457.0704      -1135.3794
  22302879.3684  -11102628.82348  -8633123.38547  22302879.4544   22302881.1454
     -3026.4934      -2358.3034
  23343927.6874  -13618369.07347 -10407265.15347  23343928.6444   23343929.6344
      2931.1164       2283.9764
 06  6 24  1 48  0.0000000  0  6G11G23G13G19G 3G27
  22198142.2524  -17090628.41147 -13278799.44047  22198142.1534   22198143.8174
      2723.8294       2122.4574
  21463432.1284  -21861253.81348 -17017327.37347  21463432.1594   21463430.3784
     -2586.5924      -2015.5044
  21012619.5714  -21448159.58248 -16636550.54147  21012620.0014   21012621.2344
      -636.3354       -495.8344
  20595527.1724  -23752668.05649 -18453858.10248  20595526.1624   20595525.7184
     -1471.3544      -1146.5034
  22320171.2314  -11011760.02448  -8562316.55847  22320171.6654   22320173.5724
     -3031.4364      -2362.1484
  23327191.9304  -13706317.38147 -10475796.27947  23327191.6884   23327193.2884
      2932.3724       2284.9524
 06  6 24  1 48 30.0000000  0  6G11G23G13G19G 3G27
  22182608.9094  -17172260.75147 -13342409.01647  22182609.0504   22182609.0124
      2719.0594       2118.7484
  21478231.6474  -21783478.39148 -16956723.15847  21478231.3104   21478230.9644
     -2597.6314      -2024.1304
  21016308.8364  -21428776.92248 -16621447.16047  21016308.1574   21016309.5164
      -655.0974       -510.4744
  20603972.0504  -23708287.98949 -18419276.21848  20603971.4484   20603970.8914
     -1486.4614      -1158.2894
  22337495.8314  -10920719.81848  -8491376.14847  22337495.6714   22337497.8274
     -3037.2924      -2366.6914
  23310451.4864  -13794283.81647 -10544341.52247  23310450.0464   23310453.5724
      2932.7904       2285.2824
 06  6 24  1 49  0.0000000  0  6G11G23G13G19G 3G27
  22167102.6404  -17253746.23247 -13405904.16147  22167102.9504   22167102.8504
      2713.0604       2114.0894
  21493095.3514  -21705371.64648 -16895860.76247  21493094.1684   21493094.3444
     -2609.5534      -2033.4094
  21020104.3634  -21408834.16248 -16605907.35747  21020103.7904   21020103.9324
      -674.8304       -525.8484
  20612503.5324  -23663455.42649 -18384341.74248  20612502.5934   20612502.2074
     -1502.6324      -1170.8814
  22354853.6374  -10829505.96748  -8420300.43747  22354853.4604   22354854.7784
     -3044.0034      -2371.9544
  23293710.4354  -13882261.63147 -10612895.64147  23293709.9414   23293712.3604
      2932.0904       2284.7474
 06  6 24  1 49 30.0000000  0  6G11G23G13G19G 3G27
  22151624.5504  -17335084.79147 -13469284.82347  22151624.3924   22151624.6594
      2708.1394       2110.2354
  21508019.9744  -21626939.62748 -16834744.90647  21508019.8584   21508018.8944
     -2620.5544      -2041.9964
  21024003.4084  -21388335.82648 -16589934.62847  21024004.1754   21024004.8924
      -693.3374       -540.2624
  20621120.1824  -23618175.33849 -18349058.54948  20621119.1334   20621118.7694
     -1517.5474      -1182.5084
  22372242.9214  -10738124.04348  -8349093.76047  22372243.4904   22372243.2654
     -3049.9054      -2376.5634
  23276966.0604  -13970251.28547 -10681458.97747  23276965.6084   23276967.5344
      2932.2654       2284.8654
 06  6 24  1 50  0.0000000  0  6G11G23G13G19G 3G27
  22136174.5654  -17416276.28347 -13532550.88147  22136174.0264   22136174.5774
      2703.6334       2106.6924
  21523006.2534  -21548188.05148 -16773380.04847  21523005.6754   21523004.6824
     -2630.6904      -2049.8984
  21028010.5464  -21367285.71548 -16573531.94347  21028009.9394   21028010.5214
      -711.2094       -554.1874
  20629821.1154  -23572452.62049 -18313430.44248  20629819.9514   20629819.5114
     -1531.7504      -1193.5724
  22389663.2094  -10646579.11148  -8277760.06147  22389663.2014   22389663.7234
     -3054.6994      -2380.2684
  23260221.1674  -14058253.47247 -10750032.08647  23260220.7264   23260221.7164
      2933.3274       2285.7084
 06  6 24  1 50 30.0000000  0  6G11G23G13G19G 3G27
  22120753.0094  -17497313.72848 -13595696.92047  22120752.8314   22120753.6254
      2698.5234       2102.7334
  21538053.2624  -21469116.26648 -16711765.68347  21538052.5544   21538051.5794
     -2641.1624      -2058.0154
  21032120.6294  -21345681.08148 -16556697.17247  21032121.0254   21032121.7294
      -729.5954       -568.5194
  20638606.1584  -23526285.38049 -18277455.96448  20638605.4774   20638604.9964
     -1546.4694      -1205.0314
  22407114.6834  -10554870.04148  -8206298.48047  22407114.7834   22407115.0494
     -3060.0254      -2384.4274
  23243472.1154  -14146262.39547 -10818610.43547  23243472.5994   23243474.3254
      2933.4704       2285.8384
 06  6 24  1 51  0.0000000  0  6G11G23G13G19G 3G27
  22105363.0024  -17578191.24648 -13658718.33447  22105362.5604   22105363.2194
      2693.5754       2098.9204
  21553161.0974  -21389724.60048 -16649902.05647  21553160.9434   21553159.4144
     -2651.5324      -2066.1264
  21036337.5464  -21323521.04448 -16539429.61847  21036338.2504   21036338.5724
      -747.7064       -582.6274
  20647476.1894  -23479673.01449 -18241134.63248  20647475.3334   20647474.6484
     -1560.9114      -1216.2974
  22424597.2844  -10462996.84948  -8134708.99647  22424597.1594   22424599.2414
     -3065.1664      -2388.4194
  23226724.0884  -14234272.96047 -10887190.05447  23226723.4864   23226725.9364
      2934.1304       2286.3344
 06  6 24  1 51 30.0000000  0  6G11G23G13G19G 3G27
  22090001.9674  -17658914.46048 -13721619.51047  22090001.4474   22090002.6064
      2688.5274       2094.9344
  21568327.1124  -21310024.02948 -16587797.72247  21568326.7574   21568326.0244
     -2661.4734      -2073.8724
  21040658.9284  -21300814.99948 -16521736.59647  21040658.8384   21040659.6084
      -765.5964       -596.5634
  20656429.1574  -23432626.21149 -18204474.77648  20656428.1444   20656427.6174
     -1575.1284      -1227.3764
  22442109.4474  -10370970.13048  -8062999.88147  22442110.0894   22442110.9244
     -3069.9494      -2392.1664
  23209975.9414  -14322291.37747 -10955775.80147  23209974.6614   23209976.5404
      2934.2624       2286.4274
 06  6 24  1 52  0.0000000  0  6G11G23G13G19G 3G27
  22074671.4664  -17739475.41848 -13784394.25447  22074671.3914   22074671.8684
      2681.9494       2089.7994
  21583552.3534  -21230013.41348 -16525451.79147  21583552.5864   21583551.3504
     -2672.7544      -2082.6624
  21045083.4194  -21277559.85448 -16503615.70347  21045084.2964   21045084.8544
      -784.9534       -611.6524
  20665464.7314  -23385142.61449 -18167474.56148  20665463.9004   20665463.2644
     -1590.6684      -1239.4834
  22459651.6824  -10278787.80448  -7991169.50947  22459651.3854   22459652.6314
     -3076.0254      -2396.9194
  23193225.5894  -14410311.04147 -11024362.51247  23193226.0904   23193227.3544
      2933.4584       2285.8004
 06  6 24  1 52 30.0000000  0  6G11G23G13G19G 3G27
  22059373.1314  -17819869.47348 -13847038.94747  22059372.7604   22059373.0884
      2676.3344       2085.4474
  21598838.2374  -21149693.39348 -16462864.76947  21598836.9374   21598836.0194
     -2683.0724      -2090.6984
  21049613.8634  -21253755.10848 -16485066.55247  21049614.2074   21049614.8684
      -803.2804       -625.9234
  20674583.2524  -23337222.36249 -18130134.09848  20674582.7244   20674582.1594
     -1605.3814      -1250.9514
  22477222.7354  -10186450.62548  -7919218.47847  22477223.0214   22477223.8064
     -3081.2094      -2400.9244
  23176476.4304  -14498327.75147 -11092946.92947  23176475.4544   23176478.6484
      2933.2524       2285.6574
 06  6 24  1 53  0.0000000  0  6G11G23G13G19G 3G27
  22044106.5194  -17900098.47748 -13909555.02147  22044104.8234   22044105.6514
      2671.3504       2081.5504
  21614178.7454  -21069072.00848 -16400042.91647  21614178.6024   21614177.8344
     -2692.4844      -2098.0514
  21054247.3114  -21229406.93448 -16466093.95047  21054247.0844   21054248.1754
      -820.8904       -639.6684
  20683784.6404  -23288872.22149 -18092458.65848  20683783.4034   20683782.7124
     -1618.9984      -1261.5644
  22494821.9374  -10093965.73448  -7847152.33647  22494822.4834   22494823.4924
     -3085.5724      -2404.3634
  23159727.7714  -14586344.22947 -11161531.15747  23159727.7754   23159728.9254
      2933.8344       2286.1254
 06  6 24  1 53 30.0000000  0  6G11G23G13G19G 3G27
  22028870.4634  -17980156.74948 -13971938.06947  22028870.6454   22028872.5274
      2665.8524       2077.2984
  21629578.1844  -20988149.40848 -16336986.35147  21629577.9974   21629576.6294
     -2702.2144      -2105.6044
  21058983.6664  -21204514.31248 -16446697.10447  21058984.4654   21058985.0604
      -838.6224       -653.4694
  20693066.8504  -23240091.74149 -18054447.88848  20693066.1334   20693065.4124
     -1632.9304      -1272.4004
  22512449.2664  -10001332.99748  -7774970.99847  22512449.1394   22512451.0984
     -3090.2754      -2408.0034
  23142980.2134  -14674355.36447 -11230111.22547  23142979.8444   23142980.6584
      2933.9264       2286.1564
 06  6 24  1 54  0.0000000  0  6G11G23G13G19G 3G27
  22013669.0414  -18060040.32548 -14034184.98247  22013669.6204   22013670.8634
      2660.2094       2072.8804
  21645034.3624  -20906928.23548 -16273697.13247  21645033.9114   21645032.6174
     -2711.8964      -2113.1554
  21063824.5484  -21179077.95948 -16426876.57247  21063824.1654   21063825.2474
      -856.4954       -667.4024
  20702431.2694  -23190882.35249 -18016102.90748  20702430.3274   20702429.7464
     -1646.9814      -1283.3594
  22530104.6144   -9908554.15648  -7702675.81547  22530104.9084   22530106.4464
     -3094.5734      -2411.3484
  23126232.9454  -14762358.28547 -11298684.88047  23126233.6214   23126235.0574
      2933.7784       2286.0574
 06  6 24  1 54 30.0000000  0  6G11G23G13G19G 3G27
  21998501.4654  -18139748.52148 -14096295.24847  21998501.2634   21998502.0734
      2654.0714       2068.1414
  21660545.3474  -20825413.58248 -16210179.22647  21660545.2634   21660544.3054
     -2721.9324      -2120.9804
  21068767.1784  -21153101.63948 -16406635.28947  21068767.8554   21068768.7924
      -874.8034       -681.6574
  20711876.2664  -23141248.52249 -17977427.19548  20711875.2704   20711874.4774
     -1661.3804      -1294.5794
  22547786.9674   -9815634.02548  -7630270.53547  22547786.6114   22547788.6324
     -3099.8124      -2415.4264
  23109488.6304  -14850353.07847 -11367252.21947  23109487.9804   23109490.9874
      2933.1794       2285.5714
 06  6 24  1 55  0.0000000  0  6G11G23G13G19G 3G27
  21983368.5624  -18219276.26448 -14158264.89047  21983368.1394   21983368.6834
      2647.4744       2062.9584
  21676112.9174  -20743606.44848 -16146433.41547  21676111.9544   21676111.7394
     -2732.0794      -2128.8824
  21073813.5274  -21126584.51748 -16385972.59347  21073814.0804   21073814.6724
      -893.2564       -696.0354
  20721401.8474  -23091190.23349 -17938420.73148  20721401.3274   20721400.8764
     -1676.0294      -1305.9894
  22565495.6964   -9722572.88848  -7557755.36847  22565495.2414   22565497.2414
     -3104.8574      -2419.3904
  23092745.3674  -14938335.29647 -11435809.73547  23092746.3104   23092747.2484
      2932.0364       2284.7154
 06  6 24  1 55 30.0000000  0  6G11G23G13G19G 3G27
  21968268.7134  -18298624.52348 -14220094.68147  21968267.9684   21968270.0434
      2642.2874       2058.9244
  21691734.9614  -20661513.91048 -16082465.21247  21691734.4914   21691732.5474
     -2740.7154      -2135.6334
  21078961.4564  -21099532.53948 -16364893.13347  21078961.9534   21078962.1494
      -910.2944       -709.3254
  20731007.0514  -23040714.14449 -17899088.71248  20731006.5184   20731005.6344
     -1689.1534      -1316.2214
  22583230.0434   -9629377.31248  -7485135.45547  22583230.1324   22583231.8104
     -3108.5184      -2422.2414
  23076005.2474  -15026306.51047 -11504358.71147  23076005.4834   23076006.8544
      2932.5814       2285.1334
 06  6 24  1 56  0.0000000  0  6G11G23G13G19G 3G27
  21953203.5864  -18377786.98348 -14281779.68347  21953203.7854   21953204.8844
      2635.9564       2053.9884
  21707410.3274  -20579135.69948 -16018274.40447  21707410.4804   21707409.3734
     -2750.4594      -2143.2304
  21084211.4654  -21071943.94148 -16343395.53047  21084211.2744   21084211.6844
      -928.2804       -723.3414
  20740691.7574  -22989818.91049 -17859430.08648  20740691.5624   20740690.7714
     -1703.2784      -1327.2274
  22600991.0414   -9536046.36448  -7412410.05347  22600990.3104   22600992.6284
     -3113.2044      -2425.8484
  23059268.5404  -15114261.25447 -11572894.83247  23059267.3274   23059269.8244
      2931.8264       2284.5074
 06  6 24  1 56 30.0000000  0  6G11G23G13G19G 3G27
  21938176.3274  -18456761.78448 -14343318.46047  21938175.9754   21938176.5674
      2630.0864       2049.4294
  21723140.2594  -20496476.15948 -15953864.37647  21723140.2114   21723138.7134
     -2759.5154      -2150.2874
  21089562.7304  -21043821.47648 -16321481.91847  21089563.5604   21089563.6734
      -945.7694       -736.9674
  20750456.2524  -22938507.86849 -17819447.45948  20750455.6404   20750454.9364
     -1716.7604      -1337.7344
  22618776.3914   -9442583.67247  -7339581.99747  22618776.1744   22618777.2004
     -3117.2074      -2428.9774
  23042535.3004  -15202198.59347 -11641417.39747  23042533.7954   23042535.5444
      2931.4544       2284.2524
 06  6 24  1 57  0.0000000  0  6G11G23G13G19G 3G27
  21923184.4004  -18535546.10348 -14404708.81647  21923185.1434   21923184.1144
      2623.1894       2044.0514
  21738922.4674  -20413538.53848 -15889237.67847  21738922.3204   21738921.5314
     -2769.1024      -2157.7334
  21095015.4874  -21015167.13948 -16299153.87147  21095015.7054   21095016.8574
      -963.8164       -751.0204
  20760299.1094  -22886783.77949 -17779142.98348  20760298.5424   20760297.5384
     -1730.7084      -1348.6084
  22636586.3674   -9348992.11347  -7266653.51947  22636586.1504   22636586.9894
     -3121.7184      -2432.5084
  23025804.1324  -15290116.64247 -11709924.94747  23025804.2024   23025805.6564
      2930.4474       2283.4774
 06  6 24  1 57 30.0000000  0  6G11G23G13G19G 3G27
  21908228.6784  -18614137.36948 -14465948.73147  21908227.7694   21908229.5884
      2616.2694       2038.6324
  21754757.6194  -20330325.86848 -15824396.63347  21754757.2504   21754755.7004
     -2778.4404      -2165.0074
  21100568.9164  -20985982.68048 -16276412.73747  21100569.4764   21100570.1324
      -981.8084       -765.0494
  20770220.0964  -22834649.22949 -17738518.65348  20770219.1404   20770218.6484
     -1744.8244      -1359.6144
  22654419.1684   -9255274.36047  -7193626.70647  22654418.6814   22654421.0384
     -3126.3344      -2436.0934
  23009077.7624  -15378013.12247 -11778415.67847  23009077.5064   23009079.5644
      2929.0694       2282.3744
 06  6 24  1 58  0.0000000  0  6G11G23G13G19G 3G27
  21893310.3454  -18692532.21748 -14527035.60347  21893309.9044   21893310.7144
      2610.6814       2034.2934
  21770644.4194  -20246841.19248 -15759343.63847  21770644.1894   21770642.6474
     -2786.3964      -2171.2144
  21106223.2014  -20956269.73148 -16253259.79047  21106223.8044   21106224.8344
      -998.3384       -777.9404
  20780218.4304  -22782106.08549 -17697575.94748  20780218.0154   20780217.0744
     -1757.3124      -1369.3254
  22672277.6874   -9161432.47347  -7120503.18547  22672276.9524   22672279.3874
     -3129.1804      -2438.3094
  22992356.5064  -15465885.46247 -11846887.60347  22992355.7374   22992357.4504
      2929.5494       2282.7414
 06  6 24  1 58 30.0000000  0  6G11G23G13G19G 3G27
  21878431.5874  -18770721.68448 -14587962.42647  21878431.3704   21878432.0544
      2602.9524       2028.2804
  21786582.8424  -20163081.66948 -15694076.48047  21786582.7224   21786581.8354
     -2796.5164      -2179.1014
  21111978.4474  -20926023.73448 -16229691.48347  21111979.4814   21111979.6524
     -1016.9944       -792.4544
  20790295.9194  -22729150.79249 -17656312.07748  20790294.9554   20790294.3814
     -1771.8844      -1380.6804
  22690158.4244   -9067462.90647  -7047280.16247  22690158.4984   22690161.1704
     -3134.2964      -2442.3104
  22975640.3564  -15553725.26647 -11915334.17047  22975640.4714   22975643.3974
      2927.4694       2281.1544
 06  6 24  1 59  0.0000000  0  6G11G23G13G19G 3G27
  21863590.1514  -18848714.82248 -14648736.27847  21863589.5004   21863590.5004
      2597.1244       2023.7314
  21802571.4944  -20079062.55948 -15628607.05747  21802570.9104   21802570.2674
     -2804.3984      -2185.2364
  21117834.0134  -20895258.75848 -16205718.77747  21117834.3494   21117834.2624
     -1033.6444       -805.4324
  20800448.3674  -22675797.36649 -17614737.98248  20800447.7014   20800446.9264
     -1784.4284      -1390.4554
  22708062.5924   -8973380.33347  -6973969.08747  22708062.3734   22708064.5634
     -3137.4314      -2444.7654
  22958930.0934  -15641542.38448 -11983763.07747  22958928.9384   22958931.1654
      2927.2394       2280.9564
